Wetterdaten: aktuell Freitag, 27.11.2020 17:50
Datum Zeit Temp. 2m Temp. 5cm Temp. -10cm Feuchte 2m Luftdruck Regen Wind Richtung Richtung Taupunkt Windchill Windben
27.11.2020 17:50 -2,9 C -6,4 C 1,9 C 85 % 1025,1 hPa 0,0 l/m 0,0 km/h (0 Bft) SW 225 -5,1 C -2,9 C 0,0 km/h (0 Bft)
27.11.2020 17:48 -2,8 C -6,4 C 1,9 C 85 % 1025,1 hPa 0,0 l/m 0,0 km/h (0 Bft) SW 225 -5,0 C -2,8 C 0,0 km/h (0 Bft)
27.11.2020 17:46 -2,8 C -6,7 C 1,9 C 85 % 1025,1 hPa 0,0 l/m 0,0 km/h (0 Bft) W 270 -5,0 C -2,8 C 0,0 km/h (0 Bft)
27.11.2020 17:44 -2,8 C -6,5 C 1,9 C 85 % 1025,1 hPa 0,0 l/m 0,0 km/h (0 Bft) W 270 -5,0 C -2,8 C 0,0 km/h (0 Bft)
27.11.2020 17:42 -2,8 C -6,4 C 1,9 C 85 % 1025,1 hPa 0,0 l/m 0,0 km/h (0 Bft) S-SW 202 -5,0 C -2,8 C 0,0 km/h (0 Bft)
27.11.2020 17:40 -2,9 C -6,5 C 1,9 C 85 % 1025,1 hPa 0,0 l/m 0,2 km/h (0 Bft) SW 225 -5,1 C -2,9 C 0,0 km/h (0 Bft)
27.11.2020 17:38 -2,8 C -6,0 C 1,9 C 85 % 1025,1 hPa 0,0 l/m 0,5 km/h (0 Bft) SO 135 -5,0 C -2,8 C 0,0 km/h (0 Bft)
27.11.2020 17:36 -2,9 C -6,0 C 1,9 C 85 % 1025,1 hPa 0,0 l/m 0,8 km/h (0 Bft) O-SO 112 -5,1 C -2,9 C 0,0 km/h (0 Bft)
27.11.2020 17:34 -3,0 C -6,0 C 1,9 C 85 % 1025,1 hPa 0,0 l/m 0,8 km/h (0 Bft) O-SO 112 -5,2 C -3,0 C 0,0 km/h (0 Bft)
27.11.2020 17:32 -3,0 C -6,2 C 1,9 C 85 % 1025,1 hPa 0,0 l/m 0,8 km/h (0 Bft) O-NO 67 -5,2 C -3,0 C 0,0 km/h (0 Bft)
27.11.2020 17:30 -2,8 C -6,4 C 1,9 C 85 % 1024,9 hPa 0,0 l/m 0,8 km/h (0 Bft) N 360 -5,0 C -2,8 C 2,3 km/h (1 Bft)
27.11.2020 17:28 -2,8 C -6,7 C 1,9 C 85 % 1024,9 hPa 0,0 l/m 0,5 km/h (0 Bft) N 360 -5,0 C -2,8 C 2,1 km/h (1 Bft)
27.11.2020 17:26 -2,8 C -6,5 C 1,9 C 84 % 1024,9 hPa 0,0 l/m 0,0 km/h (0 Bft) N 360 -5,1 C -2,8 C 2,1 km/h (1 Bft)
27.11.2020 17:24 -2,9 C -6,5 C 1,9 C 84 % 1024,9 hPa 0,0 l/m 0,0 km/h (0 Bft) NW 315 -5,2 C -2,9 C 0,0 km/h (0 Bft)
27.11.2020 17:22 -2,8 C -6,2 C 1,9 C 84 % 1024,9 hPa 0,0 l/m 0,0 km/h (0 Bft) NW 315 -5,1 C -2,8 C 0,0 km/h (0 Bft)
27.11.2020 17:20 -2,6 C -6,4 C 1,9 C 84 % 1024,9 hPa 0,0 l/m 0,0 km/h (0 Bft) W 270 -4,9 C -2,6 C 0,0 km/h (0 Bft)
27.11.2020 17:18 -2,6 C -6,5 C 1,9 C 84 % 1024,9 hPa 0,0 l/m 0,2 km/h (0 Bft) SW 225 -4,9 C -2,6 C 0,0 km/h (0 Bft)
27.11.2020 17:16 -2,6 C -6,5 C 1,9 C 84 % 1024,9 hPa 0,0 l/m 0,3 km/h (0 Bft) S-SW 202 -4,9 C -2,6 C 0,0 km/h (0 Bft)
27.11.2020 17:14 -2,6 C -6,4 C 1,9 C 84 % 1024,9 hPa 0,0 l/m 0,3 km/h (0 Bft) W-SW 247 -4,9 C -2,6 C 0,0 km/h (0 Bft)
27.11.2020 17:12 -2,6 C -6,0 C 1,9 C 84 % 1024,9 hPa 0,0 l/m 0,5 km/h (0 Bft) S 180 -4,9 C -2,6 C 0,0 km/h (0 Bft)
27.11.2020 17:10 -2,6 C -5,7 C 1,9 C 84 % 1024,9 hPa 0,0 l/m 0,5 km/h (0 Bft) S-SO 157 -4,9 C -2,6 C 0,0 km/h (0 Bft)
27.11.2020 17:08 -2,7 C -5,7 C 1,9 C 84 % 1024,9 hPa 0,0 l/m 0,5 km/h (0 Bft) O-SO 112 -5,0 C -2,7 C 2,1 km/h (1 Bft)
27.11.2020 17:06 -2,7 C -5,9 C 1,9 C 84 % 1024,9 hPa 0,0 l/m 0,3 km/h (0 Bft) O 90 -5,0 C -2,7 C 2,3 km/h (1 Bft)
27.11.2020 17:04 -2,7 C -5,9 C 1,9 C 84 % 1024,9 hPa 0,0 l/m 0,3 km/h (0 Bft) O-NO 67 -5,0 C -2,7 C 0,0 km/h (0 Bft)
27.11.2020 17:02 -2,5 C -6,0 C 1,9 C 84 % 1024,9 hPa 0,0 l/m 0,0 km/h (0 Bft) O 90 -4,8 C -2,5 C 2,1 km/h (1 Bft)
27.11.2020 17:00 -2,5 C -6,2 C 1,9 C 84 % 1024,9 hPa 0,0 l/m 0,3 km/h (0 Bft) NO 45 -4,8 C -2,5 C 0,0 km/h (0 Bft)
27.11.2020 16:58 -2,5 C -6,5 C 1,9 C 84 % 1024,9 hPa 0,0 l/m 0,3 km/h (0 Bft) N-NO 22 -4,8 C -2,5 C 0,0 km/h (0 Bft)
27.11.2020 16:57 -2,5 C -6,5 C 1,9 C 84 % 1024,9 hPa 0,0 l/m 0,3 km/h (0 Bft) N-NO 22 -4,8 C -2,5 C 0,0 km/h (0 Bft)
27.11.2020 16:55 -2,4 C -6,5 C 1,9 C 84 % 1024,9 hPa 0,0 l/m 0,3 km/h (0 Bft) O-NO 67 -4,7 C -2,4 C 0,0 km/h (0 Bft)
27.11.2020 16:50 -2,4 C -5,8 C 1,9 C 84 % 1025,2 hPa 0,0 l/m 0,3 km/h (0 Bft) S-SO 157 -4,7 C -2,4 C 2,7 km/h (1 Bft)
27.11.2020 16:48 -2,4 C -5,4 C 1,9 C 84 % 1025,2 hPa 0,0 l/m 0,0 km/h (0 Bft) SW 225 -4,7 C -2,4 C 0,0 km/h (0 Bft)
27.11.2020 16:46 -2,4 C -5,3 C 1,9 C 84 % 1025,2 hPa 0,0 l/m 0,0 km/h (0 Bft) W 270 -4,7 C -2,4 C 0,0 km/h (0 Bft)
27.11.2020 16:44 -2,3 C -5,8 C 1,9 C 84 % 1025,2 hPa 0,0 l/m 0,0 km/h (0 Bft) W-NW 292 -4,6 C -2,3 C 0,0 km/h (0 Bft)
27.11.2020 16:42 -2,3 C -5,9 C 1,9 C 84 % 1025,2 hPa 0,0 l/m 0,2 km/h (0 Bft) NW 315 -4,6 C -2,3 C 0,0 km/h (0 Bft)
27.11.2020 16:40 -2,1 C -5,8 C 1,9 C 84 % 1025,2 hPa 0,0 l/m 0,3 km/h (0 Bft) W-NW 292 -4,4 C -2,1 C 0,0 km/h (0 Bft)
27.11.2020 16:38 -2,0 C -5,9 C 1,9 C 84 % 1025,2 hPa 0,0 l/m 0,8 km/h (0 Bft) W 270 -4,3 C -2,0 C 0,0 km/h (0 Bft)
27.11.2020 16:36 -1,7 C -5,6 C 1,9 C 84 % 1025,2 hPa 0,0 l/m 1,4 km/h (1 Bft) W-NW 292 -4,0 C -1,7 C 0,0 km/h (0 Bft)
27.11.2020 16:34 -1,9 C -5,3 C 1,9 C 83 % 1025,2 hPa 0,0 l/m 1,8 km/h (1 Bft) S-SW 202 -4,4 C -1,9 C 0,0 km/h (0 Bft)
27.11.2020 16:32 -1,9 C -5,1 C 1,9 C 83 % 1025,2 hPa 0,0 l/m 1,9 km/h (1 Bft) SO 135 -4,4 C -1,9 C 1,9 km/h (1 Bft)
27.11.2020 16:30 -2,0 C -4,8 C 1,9 C 83 % 1024,8 hPa 0,0 l/m 2,1 km/h (1 Bft) O-SO 112 -4,5 C -2,0 C 3,5 km/h (1 Bft)
27.11.2020 16:28 -2,3 C -4,7 C 1,9 C 83 % 1024,8 hPa 0,0 l/m 2,1 km/h (1 Bft) SO 135 -4,8 C -2,3 C 3,3 km/h (1 Bft)
27.11.2020 16:26 -2,1 C -4,8 C 1,9 C 83 % 1024,8 hPa 0,0 l/m 1,8 km/h (1 Bft) O-SO 112 -4,6 C -2,1 C 3,5 km/h (1 Bft)
27.11.2020 16:24 -2,0 C -4,8 C 1,9 C 83 % 1024,8 hPa 0,0 l/m 1,4 km/h (1 Bft) O-SO 112 -4,5 C -2,0 C 3,7 km/h (1 Bft)
27.11.2020 16:22 -1,7 C -4,8 C 1,9 C 83 % 1024,8 hPa 0,0 l/m 1,6 km/h (1 Bft) W-NW 292 -4,2 C -1,7 C 0,0 km/h (0 Bft)
27.11.2020 16:20 -1,6 C -5,6 C 1,9 C 83 % 1024,8 hPa 0,0 l/m 1,6 km/h (1 Bft) N-NW 337 -4,1 C -1,6 C 3,3 km/h (1 Bft)
27.11.2020 16:18 -1,7 C -5,8 C 1,9 C 83 % 1024,8 hPa 0,0 l/m 1,1 km/h (1 Bft) W 270 -4,2 C -1,7 C 3,3 km/h (1 Bft)
27.11.2020 16:16 -1,9 C -5,8 C 1,9 C 83 % 1024,8 hPa 0,0 l/m 0,8 km/h (0 Bft) N-NW 337 -4,4 C -1,9 C 2,3 km/h (1 Bft)
27.11.2020 16:14 -1,9 C -5,6 C 1,9 C 83 % 1024,8 hPa 0,0 l/m 0,5 km/h (0 Bft) N 360 -4,4 C -1,9 C 0,0 km/h (0 Bft)
27.11.2020 16:12 -1,9 C -5,6 C 1,9 C 83 % 1024,8 hPa 0,0 l/m 0,6 km/h (0 Bft) S-SO 157 -4,4 C -1,9 C 2,1 km/h (1 Bft)
27.11.2020 16:10 -1,7 C -5,4 C 1,9 C 83 % 1024,4 hPa 0,0 l/m 0,3 km/h (0 Bft) S-SW 202 -4,2 C -1,7 C 0,0 km/h (0 Bft)
27.11.2020 16:08 -1,5 C -5,3 C 1,9 C 83 % 1024,4 hPa 0,0 l/m 0,5 km/h (0 Bft) SW 225 -4,0 C -1,5 C 0,0 km/h (0 Bft)
27.11.2020 16:06 -1,6 C -5,1 C 1,9 C 83 % 1024,4 hPa 0,0 l/m 0,5 km/h (0 Bft) SW 225 -4,1 C -1,6 C 0,0 km/h (0 Bft)
27.11.2020 16:04 -1,7 C -4,7 C 1,9 C 83 % 1024,4 hPa 0,0 l/m 0,6 km/h (0 Bft) SO 135 -4,2 C -1,7 C 2,1 km/h (1 Bft)
27.11.2020 16:02 -1,7 C -4,4 C 1,8 C 83 % 1024,4 hPa 0,0 l/m 0,3 km/h (0 Bft) SO 135 -4,2 C -1,7 C 2,1 km/h (1 Bft)
27.11.2020 16:00 -1,3 C -4,7 C 1,8 C 83 % 1024,4 hPa 0,0 l/m 0,2 km/h (0 Bft) S-SW 202 -3,8 C -1,3 C 0,0 km/h (0 Bft)
27.11.2020 15:58 -1,3 C -4,8 C 1,8 C 83 % 1024,4 hPa 0,0 l/m 0,3 km/h (0 Bft) NW 315 -3,8 C -1,3 C 2,3 km/h (1 Bft)
27.11.2020 15:57 -1,3 C -4,8 C 1,8 C 83 % 1024,4 hPa 0,0 l/m 0,3 km/h (0 Bft) NW 315 -3,8 C -1,3 C 2,3 km/h (1 Bft)
27.11.2020 15:55 -1,3 C -4,7 C 1,8 C 83 % 1024,4 hPa 0,0 l/m 0,2 km/h (0 Bft) NW 315 -3,8 C -1,3 C 0,0 km/h (0 Bft)
27.11.2020 15:50 -1,2 C -4,3 C 1,8 C 83 % 1024,1 hPa 0,0 l/m 0,8 km/h (0 Bft) W-SW 247 -3,7 C -1,2 C 0,0 km/h (0 Bft)
27.11.2020 15:48 -1,2 C -4,3 C 1,8 C 83 % 1024,1 hPa 0,0 l/m 0,8 km/h (0 Bft) S 180 -3,7 C -1,2 C 1,9 km/h (1 Bft)
27.11.2020 15:46 -1,2 C -4,0 C 1,8 C 83 % 1024,1 hPa 0,0 l/m 1,0 km/h (0 Bft) O-SO 112 -3,7 C -1,2 C 0,0 km/h (0 Bft)
27.11.2020 15:44 -1,4 C -4,0 C 1,8 C 83 % 1024,1 hPa 0,0 l/m 1,0 km/h (0 Bft) O 90 -3,9 C -1,4 C 3,1 km/h (1 Bft)
27.11.2020 15:42 -1,2 C -4,3 C 1,8 C 83 % 1024,1 hPa 0,0 l/m 0,6 km/h (0 Bft) O-NO 67 -3,7 C -1,2 C 3,3 km/h (1 Bft)
27.11.2020 15:40 -1,1 C -3,9 C 1,8 C 83 % 1024,1 hPa 0,0 l/m 0,5 km/h (0 Bft) W-SW 247 -3,6 C -1,1 C 0,0 km/h (0 Bft)
27.11.2020 15:38 -1,0 C -3,8 C 1,8 C 83 % 1024,1 hPa 0,0 l/m 0,5 km/h (0 Bft) W-NW 292 -3,5 C -1,0 C 0,0 km/h (0 Bft)
27.11.2020 15:36 -1,1 C -3,5 C 1,8 C 83 % 1024,1 hPa 0,0 l/m 0,8 km/h (0 Bft) W-NW 292 -3,6 C -1,1 C 1,9 km/h (1 Bft)
27.11.2020 15:34 -1,0 C -3,6 C 1,8 C 83 % 1024,1 hPa 0,0 l/m 1,0 km/h (0 Bft) S-SW 202 -3,5 C -1,0 C 3,1 km/h (1 Bft)
27.11.2020 15:32 -0,8 C -3,6 C 1,8 C 83 % 1024,1 hPa 0,0 l/m 0,8 km/h (0 Bft) SW 225 -3,3 C -0,8 C 0,0 km/h (0 Bft)
27.11.2020 15:30 -0,8 C -3,8 C 1,8 C 83 % 1023,8 hPa 0,0 l/m 1,3 km/h (1 Bft) S-SW 202 -3,3 C -0,8 C 0,0 km/h (0 Bft)
27.11.2020 15:28 -0,7 C -3,6 C 1,9 C 83 % 1023,8 hPa 0,0 l/m 1,8 km/h (1 Bft) W-NW 292 -3,2 C -0,7 C 0,0 km/h (0 Bft)
27.11.2020 15:26 -0,7 C -3,6 C 1,9 C 83 % 1023,8 hPa 0,0 l/m 2,1 km/h (1 Bft) O-SO 112 -3,2 C -0,7 C 2,9 km/h (1 Bft)
27.11.2020 15:24 -0,7 C -3,4 C 1,9 C 83 % 1023,8 hPa 0,0 l/m 1,8 km/h (1 Bft) S-SO 157 -3,2 C -0,7 C 3,3 km/h (1 Bft)
27.11.2020 15:22 -0,6 C -3,4 C 1,9 C 83 % 1023,8 hPa 0,0 l/m 1,6 km/h (1 Bft) SO 135 -3,1 C -0,6 C 0,0 km/h (0 Bft)
27.11.2020 15:20 -0,4 C -3,4 C 1,9 C 83 % 1023,8 hPa 0,0 l/m 1,3 km/h (1 Bft) O-NO 67 -2,9 C -0,4 C 3,7 km/h (1 Bft)
27.11.2020 15:18 -0,4 C -3,4 C 1,9 C 83 % 1023,8 hPa 0,0 l/m 0,6 km/h (0 Bft) O-NO 67 -2,9 C -0,4 C 4,8 km/h (1 Bft)
27.11.2020 15:16 -0,4 C -3,4 C 1,9 C 83 % 1023,8 hPa 0,0 l/m 0,2 km/h (0 Bft) NO 45 -2,9 C -0,4 C 3,5 km/h (1 Bft)
27.11.2020 15:14 -0,4 C -3,4 C 1,9 C 83 % 1023,8 hPa 0,0 l/m 0,0 km/h (0 Bft) O-SO 112 -2,9 C -0,4 C 0,0 km/h (0 Bft)
27.11.2020 15:12 0,0 C -3,5 C 1,9 C 83 % 1023,8 hPa 0,0 l/m 0,0 km/h (0 Bft) NW 315 -2,5 C 0,0 C 0,0 km/h (0 Bft)
27.11.2020 15:10 -0,2 C -3,6 C 1,9 C 83 % 1024,1 hPa 0,0 l/m 0,0 km/h (0 Bft) S-SW 202 -2,7 C -0,2 C 0,0 km/h (0 Bft)
27.11.2020 15:08 -0,3 C -3,5 C 1,9 C 83 % 1024,1 hPa 0,0 l/m 0,0 km/h (0 Bft) SO 135 -2,8 C -0,3 C 0,0 km/h (0 Bft)
27.11.2020 15:06 -0,3 C -3,5 C 1,9 C 83 % 1024,1 hPa 0,0 l/m 0,0 km/h (0 Bft) SO 135 -2,8 C -0,3 C 0,0 km/h (0 Bft)
27.11.2020 15:04 -0,2 C -3,6 C 1,9 C 83 % 1024,1 hPa 0,0 l/m 0,0 km/h (0 Bft) S-SO 157 -2,7 C -0,2 C 0,0 km/h (0 Bft)
27.11.2020 15:02 0,1 C -3,4 C 1,9 C 83 % 1024,1 hPa 0,0 l/m 0,0 km/h (0 Bft) S-SO 157 -2,4 C 0,1 C 0,0 km/h (0 Bft)
27.11.2020 15:00 0,1 C -3,4 C 1,9 C 83 % 1024,1 hPa 0,0 l/m 0,0 km/h (0 Bft) S-SO 157 -2,4 C 0,1 C 0,0 km/h (0 Bft)
27.11.2020 14:58 -0,1 C -3,5 C 1,9 C 83 % 1024,1 hPa 0,0 l/m 0,0 km/h (0 Bft) S-SO 157 -2,6 C -0,1 C 0,0 km/h (0 Bft)
27.11.2020 14:56 -0,1 C -3,4 C 1,9 C 83 % 1024,1 hPa 0,0 l/m 0,0 km/h (0 Bft) S-SO 157 -2,6 C -0,1 C 0,0 km/h (0 Bft)
27.11.2020 14:54 0,2 C -3,5 C 1,9 C 83 % 1024,1 hPa 0,0 l/m 0,0 km/h (0 Bft) SO 135 -2,3 C 0,2 C 0,0 km/h (0 Bft)
27.11.2020 14:52 0,3 C -3,4 C 1,9 C 83 % 1024,1 hPa 0,0 l/m 0,0 km/h (0 Bft) NO 45 -2,2 C 0,3 C 0,0 km/h (0 Bft)
27.11.2020 14:50 0,3 C -3,2 C 1,9 C 83 % 1024,4 hPa 0,0 l/m 0,0 km/h (0 Bft) S-SO 157 -2,2 C 0,3 C 0,0 km/h (0 Bft)
27.11.2020 14:48 0,3 C -3,4 C 1,9 C 83 % 1024,4 hPa 0,0 l/m 0,0 km/h (0 Bft) S-SO 157 -2,2 C 0,3 C 0,0 km/h (0 Bft)
27.11.2020 14:46 0,3 C -3,4 C 1,9 C 83 % 1024,4 hPa 0,0 l/m 0,0 km/h (0 Bft) S-SW 202 -2,2 C 0,3 C 0,0 km/h (0 Bft)
27.11.2020 14:44 0,4 C -3,3 C 1,9 C 83 % 1024,4 hPa 0,0 l/m 0,0 km/h (0 Bft) S 180 -2,1 C 0,4 C 0,0 km/h (0 Bft)
27.11.2020 14:42 0,4 C -3,1 C 1,9 C 83 % 1024,4 hPa 0,0 l/m 0,0 km/h (0 Bft) O-NO 67 -2,1 C 0,4 C 0,0 km/h (0 Bft)
27.11.2020 14:40 0,5 C -3,0 C 1,9 C 83 % 1024,4 hPa 0,0 l/m 0,0 km/h (0 Bft) O 90 -2,0 C 0,5 C 0,0 km/h (0 Bft)
27.11.2020 14:38 0,5 C -3,0 C 1,9 C 83 % 1024,4 hPa 0,0 l/m 0,0 km/h (0 Bft) SO 135 -2,0 C 0,5 C 0,0 km/h (0 Bft)
27.11.2020 14:36 0,8 C -3,0 C 1,9 C 83 % 1024,4 hPa 0,0 l/m 0,0 km/h (0 Bft) O-SO 112 -1,8 C 0,8 C 0,0 km/h (0 Bft)
27.11.2020 14:34 0,8 C -2,7 C 1,9 C 83 % 1024,4 hPa 0,0 l/m 0,3 km/h (0 Bft) SO 135 -1,8 C 0,8 C 0,0 km/h (0 Bft)
27.11.2020 14:32 0,9 C -2,6 C 1,9 C 83 % 1024,4 hPa 0,0 l/m 0,6 km/h (0 Bft) S 180 -1,7 C 0,9 C 0,0 km/h (0 Bft)
27.11.2020 14:30 1,0 C -2,3 C 1,9 C 83 % 1024,3 hPa 0,0 l/m 0,8 km/h (0 Bft) S-SW 202 -1,6 C 1,0 C 0,0 km/h (0 Bft)
27.11.2020 14:28 1,1 C -2,7 C 1,9 C 83 % 1024,3 hPa 0,0 l/m 0,8 km/h (0 Bft) S 180 -1,5 C 1,1 C 0,0 km/h (0 Bft)
27.11.2020 14:26 1,2 C -2,7 C 1,9 C 83 % 1024,3 hPa 0,0 l/m 0,8 km/h (0 Bft) S-SW 202 -1,4 C 1,2 C 0,0 km/h (0 Bft)
27.11.2020 14:24 1,4 C -2,6 C 1,9 C 83 % 1024,3 hPa 0,0 l/m 0,6 km/h (0 Bft) S-SO 157 -1,2 C 1,4 C 3,5 km/h (1 Bft)
27.11.2020 14:22 1,4 C -2,7 C 1,9 C 83 % 1024,3 hPa 0,0 l/m 0,3 km/h (0 Bft) NW 315 -1,2 C 1,4 C 3,3 km/h (1 Bft)
27.11.2020 14:20 1,4 C -2,7 C 1,9 C 83 % 1024,3 hPa 0,0 l/m 0,0 km/h (0 Bft) S-SO 157 -1,2 C 1,4 C 0,0 km/h (0 Bft)
27.11.2020 14:18 1,4 C -2,6 C 1,9 C 83 % 1024,3 hPa 0,0 l/m 0,0 km/h (0 Bft) O-SO 112 -1,2 C 1,4 C 0,0 km/h (0 Bft)
27.11.2020 14:16 1,2 C -2,6 C 1,9 C 83 % 1024,3 hPa 0,0 l/m 0,0 km/h (0 Bft) O 90 -1,4 C 1,2 C 0,0 km/h (0 Bft)
27.11.2020 14:14 1,2 C -2,3 C 1,9 C 83 % 1024,3 hPa 0,0 l/m 0,2 km/h (0 Bft) O-SO 112 -1,4 C 1,2 C 0,0 km/h (0 Bft)
27.11.2020 14:12 1,4 C -2,3 C 1,9 C 83 % 1024,3 hPa 0,0 l/m 0,5 km/h (0 Bft) O-NO 67 -1,2 C 1,4 C 0,0 km/h (0 Bft)
27.11.2020 14:10 1,5 C -2,4 C 1,9 C 83 % 1024,2 hPa 0,0 l/m 0,8 km/h (0 Bft) S-SO 157 -1,1 C 1,5 C 0,0 km/h (0 Bft)
27.11.2020 14:08 1,5 C -2,4 C 1,9 C 83 % 1024,2 hPa 0,0 l/m 1,3 km/h (1 Bft) S-SO 157 -1,1 C 1,5 C 0,0 km/h (0 Bft)
27.11.2020 14:06 1,4 C -2,4 C 1,9 C 83 % 1024,2 hPa 0,0 l/m 1,6 km/h (1 Bft) S 180 -1,2 C 1,4 C 0,0 km/h (0 Bft)
27.11.2020 14:04 1,5 C -2,6 C 1,9 C 83 % 1024,2 hPa 0,0 l/m 2,1 km/h (1 Bft) SO 135 -1,1 C 1,5 C 0,0 km/h (0 Bft)
27.11.2020 14:02 1,4 C -2,4 C 1,9 C 84 % 1024,2 hPa 0,0 l/m 2,3 km/h (1 Bft) O 90 -1,0 C 1,4 C 2,7 km/h (1 Bft)
27.11.2020 14:00 1,5 C -2,4 C 1,9 C 84 % 1024,2 hPa 0,0 l/m 2,4 km/h (1 Bft) O-NO 67 -0,9 C 1,5 C 2,5 km/h (1 Bft)
27.11.2020 13:58 1,5 C -2,3 C 1,9 C 84 % 1024,2 hPa 0,0 l/m 2,6 km/h (1 Bft) SO 135 -0,9 C 1,5 C 2,5 km/h (1 Bft)
27.11.2020 13:57 1,5 C -2,3 C 1,9 C 84 % 1024,2 hPa 0,0 l/m 2,6 km/h (1 Bft) SO 135 -0,9 C 1,5 C 2,5 km/h (1 Bft)
27.11.2020 13:55 1,5 C -2,2 C 1,9 C 84 % 1024,2 hPa 0,0 l/m 2,4 km/h (1 Bft) O 90 -0,9 C 1,5 C 3,7 km/h (1 Bft)
27.11.2020 13:50 1,6 C -1,8 C 1,9 C 84 % 1024,2 hPa 0,0 l/m 3,2 km/h (1 Bft) O-NO 67 -0,8 C 1,6 C 2,9 km/h (1 Bft)
27.11.2020 13:48 1,6 C -1,6 C 1,9 C 84 % 1024,2 hPa 0,0 l/m 3,4 km/h (1 Bft) O 90 -0,8 C 1,6 C 2,9 km/h (1 Bft)
27.11.2020 13:46 1,6 C -1,4 C 1,9 C 84 % 1024,2 hPa 0,0 l/m 3,1 km/h (1 Bft) O-NO 67 -0,8 C 1,6 C 3,7 km/h (1 Bft)
27.11.2020 13:44 1,7 C -1,4 C 1,9 C 84 % 1024,2 hPa 0,0 l/m 2,7 km/h (1 Bft) S 180 -0,7 C 1,7 C 3,7 km/h (1 Bft)
27.11.2020 13:42 1,5 C -1,5 C 1,9 C 84 % 1024,2 hPa 0,0 l/m 2,4 km/h (1 Bft) O-SO 112 -0,9 C 1,5 C 7,0 km/h (2 Bft)
27.11.2020 13:40 1,5 C -1,8 C 1,9 C 85 % 1024,2 hPa 0,0 l/m 1,8 km/h (1 Bft) O 90 -0,7 C 1,5 C 5,8 km/h (2 Bft)
27.11.2020 13:38 1,6 C -1,7 C 1,9 C 85 % 1024,2 hPa 0,0 l/m 1,8 km/h (1 Bft) O-SO 112 -0,6 C 1,6 C 3,9 km/h (1 Bft)
27.11.2020 13:36 1,7 C -1,8 C 1,9 C 85 % 1024,2 hPa 0,0 l/m 2,1 km/h (1 Bft) S-SW 202 -0,5 C 1,7 C 0,0 km/h (0 Bft)
27.11.2020 13:34 1,6 C -1,8 C 1,9 C 85 % 1024,2 hPa 0,0 l/m 2,9 km/h (1 Bft) S-SW 202 -0,6 C 1,6 C 0,0 km/h (0 Bft)
27.11.2020 13:32 1,6 C -1,7 C 1,9 C 85 % 1024,2 hPa 0,0 l/m 3,2 km/h (1 Bft) S-SO 157 -0,6 C 1,6 C 3,9 km/h (1 Bft)
27.11.2020 13:30 1,6 C -1,6 C 1,9 C 85 % 1024,4 hPa 0,0 l/m 3,4 km/h (1 Bft) O-SO 112 -0,6 C 1,6 C 2,7 km/h (1 Bft)
27.11.2020 13:28 1,7 C -1,2 C 1,9 C 85 % 1024,4 hPa 0,0 l/m 3,5 km/h (1 Bft) O-SO 112 -0,5 C 1,7 C 3,5 km/h (1 Bft)
27.11.2020 13:26 1,6 C -1,0 C 1,9 C 85 % 1024,4 hPa 0,0 l/m 3,5 km/h (1 Bft) O 90 -0,6 C 1,6 C 4,6 km/h (1 Bft)
27.11.2020 13:24 1,7 C -0,9 C 1,9 C 85 % 1024,4 hPa 0,0 l/m 3,4 km/h (1 Bft) O 90 -0,5 C 1,7 C 5,4 km/h (1 Bft)
27.11.2020 13:22 1,6 C -1,0 C 1,9 C 86 % 1024,4 hPa 0,0 l/m 3,4 km/h (1 Bft) O-SO 112 -0,5 C 1,6 C 3,9 km/h (1 Bft)
27.11.2020 13:20 1,6 C -1,3 C 1,9 C 86 % 1024,4 hPa 0,0 l/m 3,7 km/h (1 Bft) O 90 -0,5 C 1,6 C 3,5 km/h (1 Bft)
27.11.2020 13:18 1,7 C -1,1 C 1,9 C 86 % 1024,4 hPa 0,0 l/m 4,0 km/h (1 Bft) O-NO 67 -0,4 C 1,7 C 4,4 km/h (1 Bft)
27.11.2020 13:16 1,7 C -0,8 C 1,9 C 86 % 1024,4 hPa 0,0 l/m 4,0 km/h (1 Bft) O 90 -0,4 C 1,7 C 4,4 km/h (1 Bft)
27.11.2020 13:14 1,8 C -0,8 C 1,9 C 86 % 1024,4 hPa 0,0 l/m 4,2 km/h (1 Bft) O 90 -0,3 C 1,8 C 3,9 km/h (1 Bft)
27.11.2020 13:12 1,7 C -0,6 C 1,9 C 86 % 1024,4 hPa 0,0 l/m 4,0 km/h (1 Bft) O-NO 67 -0,4 C 1,7 C 6,8 km/h (2 Bft)
27.11.2020 13:10 1,7 C -0,8 C 1,9 C 86 % 1024,4 hPa 0,0 l/m 3,9 km/h (1 Bft) O-NO 67 -0,4 C 1,7 C 6,4 km/h (2 Bft)
27.11.2020 13:08 1,8 C -0,9 C 1,9 C 86 % 1024,4 hPa 0,0 l/m 3,4 km/h (1 Bft) O-SO 112 -0,3 C 1,8 C 5,4 km/h (1 Bft)
27.11.2020 13:06 1,7 C -1,2 C 1,9 C 86 % 1024,4 hPa 0,0 l/m 3,1 km/h (1 Bft) O-SO 112 -0,4 C 1,7 C 6,0 km/h (2 Bft)
27.11.2020 13:04 1,6 C -1,3 C 1,9 C 87 % 1024,4 hPa 0,0 l/m 2,6 km/h (1 Bft) O 90 -0,3 C 1,6 C 5,6 km/h (1 Bft)
27.11.2020 13:02 1,5 C -1,2 C 1,9 C 87 % 1024,4 hPa 0,0 l/m 2,3 km/h (1 Bft) O-SO 112 -0,4 C 1,5 C 3,1 km/h (1 Bft)
27.11.2020 13:00 1,5 C -1,3 C 1,9 C 87 % 1024,4 hPa 0,0 l/m 1,8 km/h (1 Bft) O 90 -0,4 C 1,5 C 3,7 km/h (1 Bft)
27.11.2020 12:58 1,6 C -1,3 C 1,9 C 87 % 1024,4 hPa 0,0 l/m 1,6 km/h (1 Bft) O 90 -0,3 C 1,6 C 3,3 km/h (1 Bft)
27.11.2020 12:57 1,6 C -1,3 C 1,9 C 87 % 1024,4 hPa 0,0 l/m 1,6 km/h (1 Bft) O 90 -0,3 C 1,6 C 3,3 km/h (1 Bft)
27.11.2020 12:55 1,7 C -1,3 C 1,9 C 87 % 1024,4 hPa 0,0 l/m 1,6 km/h (1 Bft) O-SO 112 -0,2 C 1,7 C 2,7 km/h (1 Bft)
27.11.2020 12:50 1,7 C -1,5 C 1,9 C 87 % 1024,6 hPa 0,0 l/m 2,9 km/h (1 Bft) S 180 -0,2 C 1,7 C 0,0 km/h (0 Bft)
27.11.2020 12:48 1,5 C -1,5 C 1,9 C 88 % 1024,6 hPa 0,0 l/m 3,4 km/h (1 Bft) O-SO 112 -0,3 C 1,5 C 2,3 km/h (1 Bft)
27.11.2020 12:46 1,6 C -1,3 C 1,9 C 88 % 1024,6 hPa 0,0 l/m 3,1 km/h (1 Bft) O-SO 112 -0,2 C 1,6 C 3,7 km/h (1 Bft)
27.11.2020 12:44 1,4 C -1,3 C 1,9 C 88 % 1024,6 hPa 0,0 l/m 2,6 km/h (1 Bft) O-NO 67 -0,4 C 1,4 C 5,6 km/h (1 Bft)
27.11.2020 12:42 1,5 C -1,3 C 1,9 C 88 % 1024,6 hPa 0,0 l/m 2,1 km/h (1 Bft) O-NO 67 -0,3 C 1,5 C 5,2 km/h (1 Bft)
27.11.2020 12:40 1,5 C -1,5 C 1,9 C 88 % 1024,6 hPa 0,0 l/m 1,3 km/h (1 Bft) O-NO 67 -0,3 C 1,5 C 4,4 km/h (1 Bft)
27.11.2020 12:38 1,5 C -1,5 C 1,9 C 88 % 1024,6 hPa 0,0 l/m 1,1 km/h (1 Bft) O-NO 67 -0,3 C 1,5 C 4,2 km/h (1 Bft)
27.11.2020 12:36 1,5 C -1,5 C 1,9 C 88 % 1024,6 hPa 0,0 l/m 1,0 km/h (0 Bft) O-SO 112 -0,3 C 1,5 C 0,0 km/h (0 Bft)
27.11.2020 12:34 1,5 C -1,5 C 1,9 C 89 % 1024,6 hPa 0,0 l/m 1,1 km/h (1 Bft) O 90 -0,1 C 1,5 C 0,0 km/h (0 Bft)
27.11.2020 12:32 1,5 C -1,5 C 1,9 C 89 % 1024,6 hPa 0,0 l/m 1,4 km/h (1 Bft) O 90 -0,1 C 1,5 C 0,0 km/h (0 Bft)
27.11.2020 12:30 1,4 C -1,7 C 1,9 C 89 % 1024,8 hPa 0,0 l/m 1,9 km/h (1 Bft) O-SO 112 -0,2 C 1,4 C 0,0 km/h (0 Bft)
27.11.2020 12:28 1,2 C -1,9 C 1,9 C 89 % 1024,8 hPa 0,0 l/m 1,9 km/h (1 Bft) O-SO 112 -0,4 C 1,2 C 3,5 km/h (1 Bft)
27.11.2020 12:26 1,3 C -1,6 C 1,9 C 89 % 1024,8 hPa 0,0 l/m 1,6 km/h (1 Bft) O 90 -0,3 C 1,3 C 2,9 km/h (1 Bft)
27.11.2020 12:24 1,1 C -1,7 C 1,9 C 89 % 1024,8 hPa 0,0 l/m 1,3 km/h (1 Bft) O-NO 67 -0,5 C 1,1 C 1,9 km/h (1 Bft)
27.11.2020 12:22 1,1 C -1,6 C 1,9 C 89 % 1024,8 hPa 0,0 l/m 1,1 km/h (1 Bft) O-NO 67 -0,5 C 1,1 C 3,3 km/h (1 Bft)
27.11.2020 12:20 1,1 C -1,8 C 1,9 C 89 % 1024,8 hPa 0,0 l/m 0,8 km/h (0 Bft) O-NO 67 -0,5 C 1,1 C 3,1 km/h (1 Bft)
27.11.2020 12:18 1,1 C -1,7 C 1,9 C 89 % 1024,8 hPa 0,0 l/m 0,3 km/h (0 Bft) O-NO 67 -0,5 C 1,1 C 0,0 km/h (0 Bft)
27.11.2020 12:16 1,0 C -1,8 C 1,9 C 89 % 1024,8 hPa 0,0 l/m 0,3 km/h (0 Bft) S 180 -0,6 C 1,0 C 0,0 km/h (0 Bft)
27.11.2020 12:14 0,9 C -1,8 C 1,9 C 89 % 1024,8 hPa 0,0 l/m 0,3 km/h (0 Bft) O-NO 67 -0,7 C 0,9 C 0,0 km/h (0 Bft)
27.11.2020 12:12 0,6 C -2,0 C 1,9 C 90 % 1024,8 hPa 0,0 l/m 0,2 km/h (0 Bft) O-SO 112 -0,8 C 0,6 C 0,0 km/h (0 Bft)
27.11.2020 12:10 0,6 C -2,0 C 1,9 C 90 % 1024,8 hPa 0,0 l/m 0,2 km/h (0 Bft) O-SO 112 -0,8 C 0,6 C 0,0 km/h (0 Bft)
27.11.2020 12:08 0,6 C -2,0 C 1,9 C 90 % 1024,8 hPa 0,0 l/m 0,2 km/h (0 Bft) O-SO 112 -0,8 C 0,6 C 0,0 km/h (0 Bft)
27.11.2020 12:06 0,6 C -2,0 C 1,9 C 90 % 1024,8 hPa 0,0 l/m 0,2 km/h (0 Bft) O-SO 112 -0,8 C 0,6 C 0,0 km/h (0 Bft)
27.11.2020 12:04 0,6 C -2,0 C 1,9 C 90 % 1024,8 hPa 0,0 l/m 0,2 km/h (0 Bft) O-SO 112 -0,8 C 0,6 C 0,0 km/h (0 Bft)
27.11.2020 12:02 0,6 C -1,8 C 1,9 C 90 % 1024,8 hPa 0,0 l/m 0,2 km/h (0 Bft) O-SO 112 -0,8 C 0,6 C 1,9 km/h (1 Bft)
27.11.2020 12:00 0,6 C -1,8 C 1,9 C 90 % 1024,8 hPa 0,0 l/m 0,2 km/h (0 Bft) O-SO 112 -0,8 C 0,6 C 1,9 km/h (1 Bft)
27.11.2020 11:58 0,6 C -1,6 C 1,9 C 90 % 1024,8 hPa 0,0 l/m 0,2 km/h (0 Bft) O 90 -0,8 C 0,6 C 0,0 km/h (0 Bft)
27.11.2020 11:56 0,4 C -1,6 C 1,9 C 90 % 1024,8 hPa 0,0 l/m 0,5 km/h (0 Bft) SO 135 -1,0 C 0,4 C 0,0 km/h (0 Bft)
27.11.2020 11:54 0,3 C -1,6 C 1,9 C 90 % 1024,8 hPa 0,0 l/m 0,8 km/h (0 Bft) S-SO 157 -1,1 C 0,3 C 0,0 km/h (0 Bft)
27.11.2020 11:52 0,3 C -2,0 C 1,9 C 90 % 1024,8 hPa 0,0 l/m 1,4 km/h (1 Bft) O 90 -1,1 C 0,3 C 0,0 km/h (0 Bft)
27.11.2020 11:50 0,2 C -1,7 C 1,9 C 90 % 1025,4 hPa 0,0 l/m 2,3 km/h (1 Bft) O-SO 112 -1,2 C 0,2 C 0,0 km/h (0 Bft)
27.11.2020 11:48 0,1 C -1,7 C 1,9 C 90 % 1025,4 hPa 0,0 l/m 2,9 km/h (1 Bft) O-SO 112 -1,3 C 0,1 C 0,0 km/h (0 Bft)
27.11.2020 11:46 0,1 C -1,5 C 1,9 C 90 % 1025,4 hPa 0,0 l/m 3,1 km/h (1 Bft) O 90 -1,3 C 0,1 C 3,3 km/h (1 Bft)
27.11.2020 11:44 0,0 C -1,7 C 1,9 C 90 % 1025,4 hPa 0,0 l/m 2,7 km/h (1 Bft) O 90 -1,4 C 0,0 C 3,7 km/h (1 Bft)
27.11.2020 11:42 0,0 C -1,7 C 1,9 C 90 % 1025,4 hPa 0,0 l/m 2,4 km/h (1 Bft) O 90 -1,4 C 0,0 C 5,8 km/h (2 Bft)
27.11.2020 11:40 -0,3 C -1,7 C 1,9 C 90 % 1025,4 hPa 0,0 l/m 2,3 km/h (1 Bft) O 90 -1,7 C -0,3 C 5,2 km/h (1 Bft)
27.11.2020 11:38 -0,1 C -1,7 C 1,9 C 90 % 1025,4 hPa 0,0 l/m 1,8 km/h (1 Bft) O 90 -1,5 C -0,1 C 4,6 km/h (1 Bft)
27.11.2020 11:36 0,0 C -1,6 C 1,9 C 90 % 1025,4 hPa 0,0 l/m 1,6 km/h (1 Bft) O-NO 67 -1,4 C 0,0 C 2,7 km/h (1 Bft)
27.11.2020 11:34 -0,1 C -1,5 C 1,9 C 90 % 1025,4 hPa 0,0 l/m 1,6 km/h (1 Bft) SO 135 -1,5 C -0,1 C 2,5 km/h (1 Bft)
27.11.2020 11:32 -0,4 C -1,7 C 1,9 C 90 % 1025,4 hPa 0,0 l/m 1,4 km/h (1 Bft) O-NO 67 -1,8 C -0,4 C 0,0 km/h (0 Bft)
27.11.2020 11:30 -0,5 C -1,8 C 1,9 C 90 % 1025,6 hPa 0,0 l/m 1,1 km/h (1 Bft) O-NO 67 -1,9 C -0,5 C 4,1 km/h (1 Bft)
27.11.2020 11:28 -0,4 C -2,0 C 1,9 C 90 % 1025,6 hPa 0,0 l/m 0,6 km/h (0 Bft) O-SO 112 -1,8 C -0,4 C 3,3 km/h (1 Bft)
27.11.2020 11:26 -0,4 C -1,8 C 1,9 C 90 % 1025,6 hPa 0,0 l/m 0,3 km/h (0 Bft) O-SO 112 -1,8 C -0,4 C 2,7 km/h (1 Bft)
27.11.2020 11:24 -0,5 C -1,8 C 1,9 C 90 % 1025,6 hPa 0,0 l/m 0,0 km/h (0 Bft) O 90 -1,9 C -0,5 C 2,3 km/h (1 Bft)
27.11.2020 11:22 -0,7 C -1,7 C 1,9 C 90 % 1025,6 hPa 0,0 l/m 0,2 km/h (0 Bft) S 180 -2,1 C -0,7 C 0,0 km/h (0 Bft)
27.11.2020 11:20 -0,8 C -1,7 C 1,9 C 90 % 1025,6 hPa 0,0 l/m 0,2 km/h (0 Bft) O 90 -2,2 C -0,8 C 0,0 km/h (0 Bft)
27.11.2020 11:18 -0,8 C -1,6 C 1,9 C 90 % 1025,6 hPa 0,0 l/m 0,6 km/h (0 Bft) O-SO 112 -2,2 C -0,8 C 0,0 km/h (0 Bft)
27.11.2020 11:16 -0,9 C -1,6 C 1,9 C 90 % 1025,6 hPa 0,0 l/m 1,1 km/h (1 Bft) NO 45 -2,3 C -0,9 C 0,0 km/h (0 Bft)
27.11.2020 11:14 -0,9 C -1,2 C 1,9 C 90 % 1025,6 hPa 0,0 l/m 1,4 km/h (1 Bft) O-SO 112 -2,3 C -0,9 C 0,0 km/h (0 Bft)
27.11.2020 11:12 -0,9 C -0,8 C 1,9 C 90 % 1025,6 hPa 0,0 l/m 1,8 km/h (1 Bft) O-NO 67 -2,3 C -0,9 C 2,7 km/h (1 Bft)
27.11.2020 11:10 -1,2 C -0,8 C 1,9 C 90 % 1025,7 hPa 0,0 l/m 1,8 km/h (1 Bft) NO 45 -2,6 C -1,2 C 2,1 km/h (1 Bft)
27.11.2020 11:08 -1,2 C -0,7 C 1,9 C 90 % 1025,7 hPa 0,0 l/m 1,8 km/h (1 Bft) O-NO 67 -2,6 C -1,2 C 3,5 km/h (1 Bft)
27.11.2020 11:06 -1,2 C -0,6 C 1,9 C 90 % 1025,7 hPa 0,0 l/m 1,9 km/h (1 Bft) O-NO 67 -2,6 C -1,2 C 3,1 km/h (1 Bft)
27.11.2020 11:04 -1,2 C -0,4 C 1,9 C 90 % 1025,7 hPa 0,0 l/m 2,1 km/h (1 Bft) O-NO 67 -2,6 C -1,2 C 3,1 km/h (1 Bft)
27.11.2020 11:02 -1,3 C -0,1 C 1,9 C 90 % 1025,7 hPa 0,0 l/m 2,3 km/h (1 Bft) O-NO 67 -2,7 C -1,3 C 2,3 km/h (1 Bft)
27.11.2020 11:00 -1,5 C -0,1 C 1,9 C 90 % 1025,7 hPa 0,0 l/m 2,4 km/h (1 Bft) O-NO 67 -2,9 C -1,5 C 2,1 km/h (1 Bft)
27.11.2020 10:58 -1,6 C 0,1 C 1,9 C 90 % 1025,7 hPa 0,0 l/m 2,6 km/h (1 Bft) O-NO 67 -3,0 C -1,6 C 0,0 km/h (0 Bft)
27.11.2020 10:57 -1,6 C 0,1 C 1,9 C 90 % 1025,7 hPa 0,0 l/m 2,6 km/h (1 Bft) O-NO 67 -3,0 C -1,6 C 4,6 km/h (1 Bft)
27.11.2020 10:55 -1,6 C -0,8 C 1,9 C 90 % 1025,7 hPa 0,0 l/m 2,9 km/h (1 Bft) O 90 -3,0 C -1,6 C 3,5 km/h (1 Bft)
27.11.2020 10:50 -1,9 C -1,1 C 1,9 C 90 % 1025,9 hPa 0,0 l/m 3,1 km/h (1 Bft) O 90 -3,3 C -1,9 C 3,1 km/h (1 Bft)
27.11.2020 10:48 -2,0 C -0,8 C 1,9 C 90 % 1025,9 hPa 0,0 l/m 2,6 km/h (1 Bft) O-NO 67 -3,4 C -2,0 C 3,1 km/h (1 Bft)
27.11.2020 10:46 -2,0 C -0,7 C 1,9 C 90 % 1025,9 hPa 0,0 l/m 2,1 km/h (1 Bft) O-NO 67 -3,4 C -2,0 C 4,4 km/h (1 Bft)
27.11.2020 10:44 -2,0 C -0,3 C 1,9 C 90 % 1025,9 hPa 0,0 l/m 1,3 km/h (1 Bft) O-NO 67 -3,4 C -2,0 C 4,4 km/h (1 Bft)
27.11.2020 10:42 -1,8 C 0,3 C 1,9 C 90 % 1025,9 hPa 0,0 l/m 0,8 km/h (0 Bft) O-NO 67 -3,2 C -1,8 C 4,4 km/h (1 Bft)
27.11.2020 10:40 -1,8 C 1,4 C 1,9 C 90 % 1025,9 hPa 0,0 l/m 0,2 km/h (0 Bft) O 90 -3,2 C -1,8 C 2,9 km/h (1 Bft)
27.11.2020 10:38 -2,0 C 0,9 C 1,9 C 90 % 1025,9 hPa 0,0 l/m 0,3 km/h (0 Bft) N-NO 22 -3,4 C -2,0 C 0,0 km/h (0 Bft)
27.11.2020 10:36 -2,0 C 0,5 C 1,9 C 90 % 1025,9 hPa 0,0 l/m 0,5 km/h (0 Bft) O-NO 67 -3,4 C -2,0 C 0,0 km/h (0 Bft)
27.11.2020 10:34 -2,1 C 0,6 C 1,9 C 90 % 1025,9 hPa 0,0 l/m 0,5 km/h (0 Bft) O-NO 67 -3,5 C -2,1 C 0,0 km/h (0 Bft)
27.11.2020 10:32 -2,2 C 1,2 C 1,9 C 90 % 1025,9 hPa 0,0 l/m 0,5 km/h (0 Bft) O-NO 67 -3,6 C -2,2 C 0,0 km/h (0 Bft)
27.11.2020 10:30 -2,2 C 0,4 C 1,9 C 90 % 1025,8 hPa 0,0 l/m 0,5 km/h (0 Bft) O 90 -3,6 C -2,2 C 0,0 km/h (0 Bft)
27.11.2020 10:28 -2,2 C -0,8 C 1,9 C 90 % 1025,8 hPa 0,0 l/m 0,3 km/h (0 Bft) O-NO 67 -3,6 C -2,2 C 2,1 km/h (1 Bft)
27.11.2020 10:26 -2,2 C -0,7 C 1,9 C 90 % 1025,8 hPa 0,0 l/m 0,0 km/h (0 Bft) O-NO 67 -3,6 C -2,2 C 2,5 km/h (1 Bft)
27.11.2020 10:24 -2,4 C -0,1 C 1,9 C 90 % 1025,8 hPa 0,0 l/m 0,2 km/h (0 Bft) NO 45 -3,8 C -2,4 C 0,0 km/h (0 Bft)
27.11.2020 10:22 -2,5 C 1,0 C 1,9 C 90 % 1025,8 hPa 0,0 l/m 0,2 km/h (0 Bft) N-NW 337 -3,9 C -2,5 C 0,0 km/h (0 Bft)
27.11.2020 10:20 -2,6 C 2,7 C 1,9 C 90 % 1025,8 hPa 0,0 l/m 0,2 km/h (0 Bft) O-NO 67 -4,0 C -2,6 C 0,0 km/h (0 Bft)
27.11.2020 10:18 -2,6 C 3,8 C 1,9 C 90 % 1025,8 hPa 0,0 l/m 0,3 km/h (0 Bft) O-NO 67 -4,0 C -2,6 C 0,0 km/h (0 Bft)
27.11.2020 10:16 -2,8 C 3,3 C 1,9 C 90 % 1025,8 hPa 0,0 l/m 0,3 km/h (0 Bft) NO 45 -4,2 C -2,8 C 0,0 km/h (0 Bft)
27.11.2020 10:14 -2,9 C 2,9 C 1,9 C 90 % 1025,8 hPa 0,0 l/m 0,3 km/h (0 Bft) O-NO 67 -4,3 C -2,9 C 1,9 km/h (1 Bft)
27.11.2020 10:12 -2,9 C 3,0 C 1,9 C 90 % 1025,8 hPa 0,0 l/m 0,5 km/h (0 Bft) O-NO 67 -4,3 C -2,9 C 0,0 km/h (0 Bft)
27.11.2020 10:10 -2,9 C 3,0 C 1,9 C 90 % 1026,1 hPa 0,0 l/m 0,5 km/h (0 Bft) O-NO 67 -4,3 C -2,9 C 0,0 km/h (0 Bft)
27.11.2020 10:08 -2,8 C 2,7 C 1,9 C 90 % 1026,1 hPa 0,0 l/m 0,3 km/h (0 Bft) O 90 -4,2 C -2,8 C 2,7 km/h (1 Bft)
27.11.2020 10:06 -2,9 C 2,9 C 1,9 C 90 % 1026,1 hPa 0,0 l/m 0,8 km/h (0 Bft) O-NO 67 -4,3 C -2,9 C 0,0 km/h (0 Bft)
27.11.2020 10:04 -3,0 C 2,8 C 1,9 C 90 % 1026,1 hPa 0,0 l/m 0,8 km/h (0 Bft) SO 135 -4,4 C -3,0 C 0,0 km/h (0 Bft)
27.11.2020 10:02 -3,0 C 2,6 C 1,9 C 89 % 1026,1 hPa 0,0 l/m 0,6 km/h (0 Bft) NO 45 -4,6 C -3,0 C 2,3 km/h (1 Bft)
27.11.2020 10:00 -3,2 C 2,3 C 1,9 C 89 % 1026,1 hPa 0,0 l/m 0,6 km/h (0 Bft) N-NO 22 -4,7 C -3,2 C 0,0 km/h (0 Bft)
27.11.2020 09:58 -3,0 C 2,3 C 1,9 C 89 % 1026,1 hPa 0,0 l/m 0,5 km/h (0 Bft) O-NO 67 -4,6 C -3,0 C 1,9 km/h (1 Bft)
27.11.2020 09:57 -3,0 C 2,3 C 1,9 C 89 % 1026,1 hPa 0,0 l/m 0,5 km/h (0 Bft) O-NO 67 -4,6 C -3,0 C 1,9 km/h (1 Bft)
27.11.2020 09:55 -2,9 C 2,0 C 1,9 C 89 % 1026,1 hPa 0,0 l/m 0,3 km/h (0 Bft) O-NO 67 -4,5 C -2,9 C 3,1 km/h (1 Bft)
27.11.2020 09:50 -3,1 C 1,7 C 1,9 C 89 % 1026,4 hPa 0,0 l/m 0,0 km/h (0 Bft) NO 45 -4,6 C -3,1 C 0,0 km/h (0 Bft)
27.11.2020 09:48 -3,3 C 1,5 C 1,9 C 89 % 1026,4 hPa 0,0 l/m 0,0 km/h (0 Bft) O-NO 67 -4,8 C -3,3 C 0,0 km/h (0 Bft)
27.11.2020 09:46 -3,4 C 1,5 C 1,9 C 89 % 1026,4 hPa 0,0 l/m 0,0 km/h (0 Bft) NO 45 -4,9 C -3,4 C 0,0 km/h (0 Bft)
27.11.2020 09:44 -3,4 C 1,2 C 1,9 C 89 % 1026,4 hPa 0,0 l/m 0,0 km/h (0 Bft) NO 45 -4,9 C -3,4 C 0,0 km/h (0 Bft)
27.11.2020 09:42 -3,7 C 1,1 C 1,9 C 89 % 1026,4 hPa 0,0 l/m 0,0 km/h (0 Bft) NO 45 -5,2 C -3,7 C 0,0 km/h (0 Bft)
27.11.2020 09:40 -3,7 C 0,8 C 1,9 C 89 % 1026,4 hPa 0,0 l/m 0,0 km/h (0 Bft) N-NO 22 -5,2 C -3,7 C 0,0 km/h (0 Bft)
27.11.2020 09:38 -3,9 C 0,8 C 1,9 C 89 % 1026,4 hPa 0,0 l/m 0,0 km/h (0 Bft) NO 45 -5,4 C -3,9 C 0,0 km/h (0 Bft)
27.11.2020 09:36 -4,3 C 0,4 C 1,9 C 89 % 1026,4 hPa 0,0 l/m 0,0 km/h (0 Bft) S 180 -5,8 C -4,3 C 0,0 km/h (0 Bft)
27.11.2020 09:34 -4,4 C 0,4 C 1,9 C 89 % 1026,4 hPa 0,0 l/m 0,0 km/h (0 Bft) N-NO 22 -5,9 C -4,4 C 0,0 km/h (0 Bft)
27.11.2020 09:32 -4,6 C 0,1 C 1,9 C 89 % 1026,4 hPa 0,0 l/m 0,0 km/h (0 Bft) NO 45 -6,1 C -4,6 C 0,0 km/h (0 Bft)
27.11.2020 09:30 -4,8 C -0,4 C 1,9 C 89 % 1026,4 hPa 0,0 l/m 0,0 km/h (0 Bft) N-NO 22 -6,3 C -4,8 C 0,0 km/h (0 Bft)
27.11.2020 09:28 -5,1 C -2,0 C 1,9 C 89 % 1026,4 hPa 0,0 l/m 0,0 km/h (0 Bft) N-NO 22 -6,6 C -5,1 C 0,0 km/h (0 Bft)
27.11.2020 09:26 -5,6 C -4,6 C 1,9 C 88 % 1026,4 hPa 0,0 l/m 0,0 km/h (0 Bft) N-NO 22 -7,3 C -5,6 C 0,0 km/h (0 Bft)
27.11.2020 09:24 -5,9 C -5,8 C 1,9 C 88 % 1026,4 hPa 0,0 l/m 0,0 km/h (0 Bft) N-NO 22 -7,6 C -5,9 C 0,0 km/h (0 Bft)
27.11.2020 09:22 -5,9 C -6,2 C 1,9 C 88 % 1026,4 hPa 0,0 l/m 0,0 km/h (0 Bft) N-NO 22 -7,6 C -5,9 C 0,0 km/h (0 Bft)
27.11.2020 09:20 -5,9 C -6,2 C 1,9 C 88 % 1026,4 hPa 0,0 l/m 0,0 km/h (0 Bft) N-NO 22 -7,6 C -5,9 C 0,0 km/h (0 Bft)
27.11.2020 09:18 -6,0 C -6,2 C 1,9 C 88 % 1026,4 hPa 0,0 l/m 0,0 km/h (0 Bft) N-NO 22 -7,7 C -6,0 C 0,0 km/h (0 Bft)
27.11.2020 09:16 -6,0 C -6,2 C 1,9 C 88 % 1026,4 hPa 0,0 l/m 0,0 km/h (0 Bft) N-NO 22 -7,7 C -6,0 C 0,0 km/h (0 Bft)
27.11.2020 09:14 -6,3 C -6,0 C 1,9 C 88 % 1026,4 hPa 0,0 l/m 0,0 km/h (0 Bft) N-NO 22 -8,0 C -6,3 C 0,0 km/h (0 Bft)
27.11.2020 09:12 -6,5 C -6,2 C 1,9 C 88 % 1026,4 hPa 0,0 l/m 0,3 km/h (0 Bft) O 90 -8,1 C -6,5 C 0,0 km/h (0 Bft)
27.11.2020 09:10 -6,5 C -6,2 C 1,9 C 88 % 1026,4 hPa 0,0 l/m 1,0 km/h (0 Bft) SO 135 -8,1 C -6,5 C 0,0 km/h (0 Bft)
27.11.2020 09:08 -6,3 C -6,3 C 1,9 C 88 % 1026,4 hPa 0,0 l/m 1,0 km/h (0 Bft) O-NO 67 -8,0 C -6,3 C 0,0 km/h (0 Bft)
27.11.2020 09:06 -6,2 C -6,3 C 1,9 C 88 % 1026,4 hPa 0,0 l/m 1,0 km/h (0 Bft) O-NO 67 -7,9 C -6,2 C 0,0 km/h (0 Bft)
27.11.2020 09:04 -6,2 C -6,5 C 1,9 C 88 % 1026,4 hPa 0,0 l/m 1,0 km/h (0 Bft) O-NO 67 -7,9 C -6,2 C 0,0 km/h (0 Bft)
27.11.2020 09:02 -6,3 C -6,3 C 1,9 C 88 % 1026,4 hPa 0,0 l/m 1,0 km/h (0 Bft) O-NO 67 -8,0 C -6,3 C 2,5 km/h (1 Bft)
27.11.2020 09:00 -6,5 C -6,5 C 1,9 C 88 % 1026,4 hPa 0,0 l/m 0,5 km/h (0 Bft) O-NO 67 -8,1 C -6,5 C 3,1 km/h (1 Bft)
27.11.2020 08:58 -6,6 C -6,5 C 1,9 C 88 % 1026,4 hPa 0,0 l/m 0,2 km/h (0 Bft) O-NO 67 -8,2 C -6,6 C 2,3 km/h (1 Bft)
27.11.2020 08:57 -6,6 C -6,5 C 1,9 C 88 % 1026,4 hPa 0,0 l/m 0,2 km/h (0 Bft) O-NO 67 -8,2 C -6,6 C 2,3 km/h (1 Bft)
27.11.2020 08:55 -6,6 C -6,6 C 1,9 C 88 % 1026,4 hPa 0,0 l/m 0,0 km/h (0 Bft) N-NO 22 -8,2 C -6,6 C 0,0 km/h (0 Bft)
27.11.2020 08:50 -6,5 C -6,5 C 1,9 C 88 % 1026,4 hPa 0,0 l/m 0,0 km/h (0 Bft) O-NO 67 -8,1 C -6,5 C 0,0 km/h (0 Bft)
27.11.2020 08:48 -6,5 C -6,5 C 1,9 C 88 % 1026,4 hPa 0,0 l/m 0,0 km/h (0 Bft) S-SO 157 -8,1 C -6,5 C 0,0 km/h (0 Bft)
27.11.2020 08:46 -6,6 C -6,6 C 1,9 C 88 % 1026,4 hPa 0,0 l/m 0,0 km/h (0 Bft) S-SO 157 -8,2 C -6,6 C 0,0 km/h (0 Bft)
27.11.2020 08:44 -6,6 C -6,6 C 1,9 C 88 % 1026,4 hPa 0,0 l/m 0,0 km/h (0 Bft) S-SW 202 -8,2 C -6,6 C 0,0 km/h (0 Bft)
27.11.2020 08:42 -6,6 C -6,8 C 1,9 C 88 % 1026,4 hPa 0,0 l/m 0,0 km/h (0 Bft) S 180 -8,2 C -6,6 C 0,0 km/h (0 Bft)
27.11.2020 08:40 -6,5 C -6,9 C 1,9 C 88 % 1026,4 hPa 0,0 l/m 0,0 km/h (0 Bft) NW 315 -8,1 C -6,5 C 0,0 km/h (0 Bft)
27.11.2020 08:38 -6,3 C -6,9 C 1,9 C 88 % 1026,4 hPa 0,0 l/m 0,0 km/h (0 Bft) N-NO 22 -8,0 C -6,3 C 0,0 km/h (0 Bft)
27.11.2020 08:36 -6,3 C -7,1 C 1,9 C 88 % 1026,4 hPa 0,0 l/m 0,0 km/h (0 Bft) N-NO 22 -8,0 C -6,3 C 0,0 km/h (0 Bft)
27.11.2020 08:34 -6,3 C -7,3 C 1,9 C 88 % 1026,4 hPa 0,0 l/m 0,2 km/h (0 Bft) N-NO 22 -8,0 C -6,3 C 0,0 km/h (0 Bft)
27.11.2020 08:32 -6,3 C -7,3 C 1,9 C 88 % 1026,4 hPa 0,0 l/m 0,2 km/h (0 Bft) N 360 -8,0 C -6,3 C 0,0 km/h (0 Bft)
27.11.2020 08:30 -6,8 C -7,3 C 1,9 C 88 % 1026,3 hPa 0,0 l/m 0,2 km/h (0 Bft) N-NO 22 -8,4 C -6,8 C 0,0 km/h (0 Bft)
27.11.2020 08:28 -6,8 C -7,1 C 1,9 C 88 % 1026,3 hPa 0,0 l/m 0,2 km/h (0 Bft) N-NO 22 -8,4 C -6,8 C 0,0 km/h (0 Bft)
27.11.2020 08:26 -6,8 C -6,9 C 1,9 C 88 % 1026,3 hPa 0,0 l/m 0,2 km/h (0 Bft) S-SO 157 -8,4 C -6,8 C 2,1 km/h (1 Bft)
27.11.2020 08:24 -6,8 C -6,9 C 1,9 C 88 % 1026,3 hPa 0,0 l/m 0,0 km/h (0 Bft) SO 135 -8,4 C -6,8 C 0,0 km/h (0 Bft)
27.11.2020 08:22 -6,8 C -7,1 C 1,9 C 88 % 1026,3 hPa 0,0 l/m 0,0 km/h (0 Bft) O-NO 67 -8,4 C -6,8 C 0,0 km/h (0 Bft)
27.11.2020 08:20 -6,6 C -7,3 C 1,9 C 88 % 1026,3 hPa 0,0 l/m 0,0 km/h (0 Bft) NO 45 -8,2 C -6,6 C 0,0 km/h (0 Bft)
27.11.2020 08:18 -6,5 C -7,4 C 1,9 C 88 % 1026,3 hPa 0,0 l/m 0,0 km/h (0 Bft) O-NO 67 -8,1 C -6,5 C 0,0 km/h (0 Bft)
27.11.2020 08:16 -6,5 C -7,4 C 1,9 C 88 % 1026,3 hPa 0,0 l/m 0,0 km/h (0 Bft) NO 45 -8,1 C -6,5 C 0,0 km/h (0 Bft)
27.11.2020 08:14 -6,6 C -7,4 C 1,9 C 88 % 1026,3 hPa 0,0 l/m 0,0 km/h (0 Bft) O-NO 67 -8,2 C -6,6 C 0,0 km/h (0 Bft)
27.11.2020 08:12 -6,6 C -7,4 C 1,9 C 88 % 1026,3 hPa 0,0 l/m 0,0 km/h (0 Bft) NO 45 -8,2 C -6,6 C 0,0 km/h (0 Bft)
27.11.2020 08:10 -6,6 C -7,4 C 1,9 C 88 % 1026,2 hPa 0,0 l/m 0,0 km/h (0 Bft) NO 45 -8,2 C -6,6 C 0,0 km/h (0 Bft)
27.11.2020 08:08 -6,6 C -7,6 C 1,9 C 88 % 1026,2 hPa 0,0 l/m 0,0 km/h (0 Bft) N-NO 22 -8,2 C -6,6 C 0,0 km/h (0 Bft)
27.11.2020 08:06 -6,8 C -7,7 C 1,9 C 88 % 1026,2 hPa 0,0 l/m 0,0 km/h (0 Bft) N-NO 22 -8,4 C -6,8 C 0,0 km/h (0 Bft)
27.11.2020 08:04 -6,8 C -7,4 C 1,9 C 88 % 1026,2 hPa 0,0 l/m 0,0 km/h (0 Bft) O-SO 112 -8,4 C -6,8 C 0,0 km/h (0 Bft)
27.11.2020 08:02 -6,9 C -7,4 C 1,9 C 88 % 1026,2 hPa 0,0 l/m 0,0 km/h (0 Bft) SW 225 -8,5 C -6,9 C 0,0 km/h (0 Bft)
27.11.2020 08:00 -6,8 C -7,6 C 1,9 C 88 % 1026,2 hPa 0,0 l/m 0,0 km/h (0 Bft) NO 45 -8,4 C -6,8 C 0,0 km/h (0 Bft)
27.11.2020 07:58 -6,6 C -7,6 C 1,9 C 88 % 1026,2 hPa 0,0 l/m 0,0 km/h (0 Bft) NW 315 -8,2 C -6,6 C 0,0 km/h (0 Bft)
27.11.2020 07:56 -6,8 C -7,6 C 1,9 C 88 % 1026,2 hPa 0,0 l/m 0,0 km/h (0 Bft) SW 225 -8,4 C -6,8 C 0,0 km/h (0 Bft)
27.11.2020 07:54 -6,8 C -7,7 C 1,9 C 88 % 1026,2 hPa 0,0 l/m 0,0 km/h (0 Bft) N-NO 22 -8,4 C -6,8 C 0,0 km/h (0 Bft)
27.11.2020 07:52 -6,6 C -8,4 C 1,9 C 88 % 1026,2 hPa 0,0 l/m 0,0 km/h (0 Bft) NW 315 -8,2 C -6,6 C 0,0 km/h (0 Bft)
27.11.2020 07:50 -6,6 C -8,4 C 1,9 C 88 % 1025,6 hPa 0,0 l/m 0,0 km/h (0 Bft) NO 45 -8,2 C -6,6 C 0,0 km/h (0 Bft)
27.11.2020 07:48 -6,6 C -8,2 C 1,9 C 88 % 1025,6 hPa 0,0 l/m 0,0 km/h (0 Bft) NO 45 -8,2 C -6,6 C 0,0 km/h (0 Bft)
27.11.2020 07:46 -6,6 C -8,2 C 1,9 C 88 % 1025,6 hPa 0,0 l/m 0,0 km/h (0 Bft) NO 45 -8,2 C -6,6 C 0,0 km/h (0 Bft)
27.11.2020 07:44 -6,6 C -8,0 C 1,9 C 88 % 1025,6 hPa 0,0 l/m 0,0 km/h (0 Bft) N-NO 22 -8,2 C -6,6 C 0,0 km/h (0 Bft)
27.11.2020 07:42 -6,5 C -8,1 C 1,9 C 88 % 1025,6 hPa 0,0 l/m 0,0 km/h (0 Bft) N-NO 22 -8,1 C -6,5 C 0,0 km/h (0 Bft)
27.11.2020 07:40 -6,6 C -8,2 C 1,9 C 88 % 1025,6 hPa 0,0 l/m 0,0 km/h (0 Bft) N-NO 22 -8,2 C -6,6 C 0,0 km/h (0 Bft)
27.11.2020 07:38 -6,9 C -8,2 C 1,9 C 88 % 1025,6 hPa 0,0 l/m 0,0 km/h (0 Bft) N-NO 22 -8,5 C -6,9 C 0,0 km/h (0 Bft)
27.11.2020 07:36 -6,9 C -8,1 C 1,9 C 88 % 1025,6 hPa 0,0 l/m 0,0 km/h (0 Bft) O-NO 67 -8,5 C -6,9 C 0,0 km/h (0 Bft)
27.11.2020 07:34 -6,9 C -8,4 C 1,9 C 88 % 1025,6 hPa 0,0 l/m 0,0 km/h (0 Bft) N-NO 22 -8,5 C -6,9 C 0,0 km/h (0 Bft)
27.11.2020 07:32 -6,9 C -8,5 C 1,9 C 88 % 1025,6 hPa 0,0 l/m 0,0 km/h (0 Bft) N-NO 22 -8,5 C -6,9 C 0,0 km/h (0 Bft)
27.11.2020 07:30 -7,1 C -8,5 C 1,9 C 88 % 1025,4 hPa 0,0 l/m 0,0 km/h (0 Bft) N-NO 22 -8,7 C -7,1 C 0,0 km/h (0 Bft)
27.11.2020 07:28 -7,1 C -8,2 C 1,9 C 88 % 1025,4 hPa 0,0 l/m 0,2 km/h (0 Bft) NO 45 -8,7 C -7,1 C 0,0 km/h (0 Bft)
27.11.2020 07:26 -7,1 C -8,1 C 1,9 C 88 % 1025,4 hPa 0,0 l/m 0,2 km/h (0 Bft) NO 45 -8,7 C -7,1 C 0,0 km/h (0 Bft)
27.11.2020 07:24 -7,0 C -7,9 C 1,9 C 88 % 1025,4 hPa 0,0 l/m 0,2 km/h (0 Bft) N-NO 22 -8,6 C -7,0 C 0,0 km/h (0 Bft)
27.11.2020 07:22 -6,8 C -7,6 C 1,9 C 88 % 1025,4 hPa 0,0 l/m 0,2 km/h (0 Bft) S-SW 202 -8,4 C -6,8 C 0,0 km/h (0 Bft)
27.11.2020 07:20 -6,8 C -8,1 C 1,9 C 88 % 1025,4 hPa 0,0 l/m 0,2 km/h (0 Bft) O-NO 67 -8,4 C -6,8 C 1,9 km/h (1 Bft)
27.11.2020 07:18 -6,8 C -8,4 C 1,9 C 88 % 1025,4 hPa 0,0 l/m 0,0 km/h (0 Bft) O 90 -8,4 C -6,8 C 0,0 km/h (0 Bft)
27.11.2020 07:16 -6,6 C -8,4 C 1,9 C 88 % 1025,4 hPa 0,0 l/m 0,0 km/h (0 Bft) O-NO 67 -8,2 C -6,6 C 0,0 km/h (0 Bft)
27.11.2020 07:14 -6,3 C -8,4 C 1,9 C 88 % 1025,4 hPa 0,0 l/m 0,0 km/h (0 Bft) O-NO 67 -8,0 C -6,3 C 0,0 km/h (0 Bft)
27.11.2020 07:12 -6,6 C -8,4 C 1,9 C 88 % 1025,4 hPa 0,0 l/m 0,0 km/h (0 Bft) NO 45 -8,2 C -6,6 C 0,0 km/h (0 Bft)
27.11.2020 07:10 -6,8 C -8,2 C 1,9 C 88 % 1025,2 hPa 0,0 l/m 0,0 km/h (0 Bft) O-NO 67 -8,4 C -6,8 C 0,0 km/h (0 Bft)
27.11.2020 07:08 -6,8 C -8,2 C 1,9 C 88 % 1025,2 hPa 0,0 l/m 0,0 km/h (0 Bft) N-NO 22 -8,4 C -6,8 C 0,0 km/h (0 Bft)
27.11.2020 07:06 -6,8 C -8,2 C 1,9 C 88 % 1025,2 hPa 0,0 l/m 0,0 km/h (0 Bft) N-NO 22 -8,4 C -6,8 C 0,0 km/h (0 Bft)
27.11.2020 07:04 -6,8 C -8,2 C 1,9 C 88 % 1025,2 hPa 0,0 l/m 0,0 km/h (0 Bft) NO 45 -8,4 C -6,8 C 0,0 km/h (0 Bft)
27.11.2020 07:02 -6,6 C -8,2 C 1,9 C 88 % 1025,2 hPa 0,0 l/m 0,0 km/h (0 Bft) SO 135 -8,2 C -6,6 C 0,0 km/h (0 Bft)
27.11.2020 07:00 -6,5 C -8,2 C 1,9 C 88 % 1025,2 hPa 0,0 l/m 0,0 km/h (0 Bft) N 360 -8,1 C -6,5 C 0,0 km/h (0 Bft)
27.11.2020 06:58 -6,5 C -7,9 C 1,9 C 88 % 1025,2 hPa 0,0 l/m 0,0 km/h (0 Bft) N-NW 337 -8,1 C -6,5 C 0,0 km/h (0 Bft)
27.11.2020 06:57 -6,5 C -7,9 C 1,9 C 88 % 1025,2 hPa 0,0 l/m 0,0 km/h (0 Bft) N-NW 337 -8,1 C -6,5 C 0,0 km/h (0 Bft)
27.11.2020 06:55 -6,5 C -7,7 C 1,9 C 88 % 1025,2 hPa 0,0 l/m 0,0 km/h (0 Bft) S 180 -8,1 C -6,5 C 0,0 km/h (0 Bft)
27.11.2020 06:50 -6,5 C -8,2 C 1,9 C 88 % 1025,1 hPa 0,0 l/m 0,2 km/h (0 Bft) N 360 -8,1 C -6,5 C 0,0 km/h (0 Bft)
27.11.2020 06:48 -6,5 C -8,4 C 1,9 C 88 % 1025,1 hPa 0,0 l/m 0,3 km/h (0 Bft) N-NO 22 -8,1 C -6,5 C 0,0 km/h (0 Bft)
27.11.2020 06:46 -6,5 C -8,7 C 1,9 C 88 % 1025,1 hPa 0,0 l/m 0,3 km/h (0 Bft) N-NO 22 -8,1 C -6,5 C 0,0 km/h (0 Bft)
27.11.2020 06:44 -6,6 C -8,7 C 1,9 C 88 % 1025,1 hPa 0,0 l/m 0,5 km/h (0 Bft) NO 45 -8,2 C -6,6 C 0,0 km/h (0 Bft)
27.11.2020 06:42 -6,8 C -8,5 C 1,9 C 88 % 1025,1 hPa 0,0 l/m 0,5 km/h (0 Bft) NO 45 -8,4 C -6,8 C 0,0 km/h (0 Bft)
27.11.2020 06:40 -6,6 C -8,5 C 1,9 C 88 % 1025,1 hPa 0,0 l/m 0,5 km/h (0 Bft) S-SO 157 -8,2 C -6,6 C 0,0 km/h (0 Bft)
27.11.2020 06:38 -6,6 C -8,1 C 1,9 C 88 % 1025,1 hPa 0,0 l/m 0,5 km/h (0 Bft) S-SO 157 -8,2 C -6,6 C 1,9 km/h (1 Bft)
27.11.2020 06:36 -6,6 C -7,9 C 1,9 C 88 % 1025,1 hPa 0,0 l/m 0,5 km/h (0 Bft) S-SO 157 -8,2 C -6,6 C 0,0 km/h (0 Bft)
27.11.2020 06:34 -6,6 C -7,7 C 1,9 C 88 % 1025,1 hPa 0,0 l/m 0,5 km/h (0 Bft) S-SO 157 -8,2 C -6,6 C 2,3 km/h (1 Bft)
27.11.2020 06:32 -6,5 C -8,1 C 1,9 C 88 % 1025,1 hPa 0,0 l/m 0,5 km/h (0 Bft) N-NO 22 -8,1 C -6,5 C 0,0 km/h (0 Bft)
27.11.2020 06:30 -6,3 C -8,1 C 1,9 C 88 % 1024,7 hPa 0,0 l/m 0,5 km/h (0 Bft) O-NO 67 -8,0 C -6,3 C 2,3 km/h (1 Bft)
27.11.2020 06:28 -6,5 C -8,1 C 1,9 C 88 % 1024,7 hPa 0,0 l/m 0,3 km/h (0 Bft) O-SO 112 -8,1 C -6,5 C 2,5 km/h (1 Bft)
27.11.2020 06:26 -6,5 C -8,1 C 1,9 C 88 % 1024,7 hPa 0,0 l/m 0,2 km/h (0 Bft) N-NO 22 -8,1 C -6,5 C 0,0 km/h (0 Bft)
27.11.2020 06:24 -6,6 C -8,1 C 1,9 C 88 % 1024,7 hPa 0,0 l/m 0,2 km/h (0 Bft) NO 45 -8,2 C -6,6 C 0,0 km/h (0 Bft)
27.11.2020 06:22 -6,5 C -8,4 C 1,9 C 88 % 1024,7 hPa 0,0 l/m 0,0 km/h (0 Bft) O-NO 67 -8,1 C -6,5 C 0,0 km/h (0 Bft)
27.11.2020 06:20 -6,5 C -8,2 C 1,9 C 88 % 1024,7 hPa 0,0 l/m 0,0 km/h (0 Bft) N 360 -8,1 C -6,5 C 0,0 km/h (0 Bft)
27.11.2020 06:18 -6,5 C -8,4 C 1,9 C 88 % 1024,7 hPa 0,0 l/m 0,0 km/h (0 Bft) N 360 -8,1 C -6,5 C 0,0 km/h (0 Bft)
27.11.2020 06:16 -6,6 C -8,5 C 1,9 C 88 % 1024,7 hPa 0,0 l/m 0,2 km/h (0 Bft) NW 315 -8,2 C -6,6 C 0,0 km/h (0 Bft)
27.11.2020 06:14 -6,6 C -8,2 C 1,9 C 88 % 1024,7 hPa 0,0 l/m 0,3 km/h (0 Bft) N 360 -8,2 C -6,6 C 0,0 km/h (0 Bft)
27.11.2020 06:12 -6,6 C -7,7 C 1,9 C 88 % 1024,7 hPa 0,0 l/m 0,8 km/h (0 Bft) O-NO 67 -8,2 C -6,6 C 0,0 km/h (0 Bft)
27.11.2020 06:10 -6,6 C -7,7 C 1,9 C 88 % 1024,7 hPa 0,0 l/m 0,8 km/h (0 Bft) O-NO 67 -8,2 C -6,6 C 0,0 km/h (0 Bft)
27.11.2020 06:08 -6,6 C -7,7 C 1,9 C 88 % 1024,7 hPa 0,0 l/m 0,8 km/h (0 Bft) O-NO 67 -8,2 C -6,6 C 0,0 km/h (0 Bft)
27.11.2020 06:06 -6,6 C -7,7 C 1,9 C 88 % 1024,7 hPa 0,0 l/m 0,8 km/h (0 Bft) O-NO 67 -8,2 C -6,6 C 0,0 km/h (0 Bft)
27.11.2020 06:04 -6,6 C -7,7 C 1,9 C 88 % 1024,7 hPa 0,0 l/m 0,8 km/h (0 Bft) O-NO 67 -8,2 C -6,6 C 0,0 km/h (0 Bft)
27.11.2020 06:02 -6,6 C -7,7 C 1,9 C 88 % 1024,7 hPa 0,0 l/m 0,8 km/h (0 Bft) O-NO 67 -8,2 C -6,6 C 0,0 km/h (0 Bft)
27.11.2020 06:00 -6,2 C -7,9 C 1,9 C 88 % 1024,7 hPa 0,0 l/m 0,6 km/h (0 Bft) N-NO 22 -7,9 C -6,2 C 0,0 km/h (0 Bft)
27.11.2020 05:58 -6,5 C -7,9 C 1,9 C 88 % 1024,7 hPa 0,0 l/m 0,5 km/h (0 Bft) O-SO 112 -8,1 C -6,5 C 2,3 km/h (1 Bft)
27.11.2020 05:56 -6,5 C -8,1 C 1,9 C 88 % 1024,7 hPa 0,0 l/m 0,5 km/h (0 Bft) O 90 -8,1 C -6,5 C 2,3 km/h (1 Bft)
27.11.2020 05:54 -6,6 C -8,2 C 1,9 C 88 % 1024,7 hPa 0,0 l/m 0,2 km/h (0 Bft) O-NO 67 -8,2 C -6,6 C 2,5 km/h (1 Bft)
27.11.2020 05:52 -6,6 C -8,4 C 1,9 C 88 % 1024,7 hPa 0,0 l/m 0,0 km/h (0 Bft) N-NO 22 -8,2 C -6,6 C 0,0 km/h (0 Bft)
27.11.2020 05:50 -6,5 C -8,4 C 1,9 C 88 % 1024,7 hPa 0,0 l/m 0,0 km/h (0 Bft) N-NO 22 -8,1 C -6,5 C 0,0 km/h (0 Bft)
27.11.2020 05:48 -6,5 C -8,4 C 1,9 C 88 % 1024,7 hPa 0,0 l/m 0,0 km/h (0 Bft) N-NO 22 -8,1 C -6,5 C 0,0 km/h (0 Bft)
27.11.2020 05:46 -6,5 C -8,5 C 1,9 C 88 % 1024,7 hPa 0,0 l/m 0,0 km/h (0 Bft) N 360 -8,1 C -6,5 C 0,0 km/h (0 Bft)
27.11.2020 05:44 -6,3 C -8,7 C 1,9 C 88 % 1024,7 hPa 0,0 l/m 0,0 km/h (0 Bft) N 360 -8,0 C -6,3 C 0,0 km/h (0 Bft)
27.11.2020 05:42 -6,3 C -8,7 C 1,9 C 88 % 1024,7 hPa 0,0 l/m 0,0 km/h (0 Bft) N 360 -8,0 C -6,3 C 0,0 km/h (0 Bft)
27.11.2020 05:40 -6,6 C -8,4 C 1,9 C 88 % 1024,7 hPa 0,0 l/m 0,0 km/h (0 Bft) NW 315 -8,2 C -6,6 C 0,0 km/h (0 Bft)
27.11.2020 05:38 -6,8 C -8,2 C 1,9 C 88 % 1024,7 hPa 0,0 l/m 0,0 km/h (0 Bft) N-NO 22 -8,4 C -6,8 C 0,0 km/h (0 Bft)
27.11.2020 05:36 -6,6 C -8,2 C 1,9 C 88 % 1024,7 hPa 0,0 l/m 0,0 km/h (0 Bft) N-NO 22 -8,2 C -6,6 C 0,0 km/h (0 Bft)
27.11.2020 05:34 -6,6 C -8,4 C 1,9 C 88 % 1024,7 hPa 0,0 l/m 0,0 km/h (0 Bft) N-NO 22 -8,2 C -6,6 C 0,0 km/h (0 Bft)
27.11.2020 05:32 -6,6 C -8,1 C 1,9 C 88 % 1024,7 hPa 0,0 l/m 0,0 km/h (0 Bft) N-NO 22 -8,2 C -6,6 C 0,0 km/h (0 Bft)
27.11.2020 05:30 -6,5 C -8,2 C 1,9 C 88 % 1024,8 hPa 0,0 l/m 0,0 km/h (0 Bft) S-SW 202 -8,1 C -6,5 C 0,0 km/h (0 Bft)
27.11.2020 05:28 -6,6 C -8,7 C 1,9 C 88 % 1024,8 hPa 0,0 l/m 0,0 km/h (0 Bft) N-NO 22 -8,2 C -6,6 C 0,0 km/h (0 Bft)
27.11.2020 05:26 -6,5 C -8,7 C 1,9 C 88 % 1024,8 hPa 0,0 l/m 0,0 km/h (0 Bft) S 180 -8,1 C -6,5 C 0,0 km/h (0 Bft)
27.11.2020 05:24 -6,5 C -8,5 C 1,9 C 88 % 1024,8 hPa 0,0 l/m 0,0 km/h (0 Bft) NO 45 -8,1 C -6,5 C 0,0 km/h (0 Bft)
27.11.2020 05:22 -6,5 C -8,4 C 1,9 C 88 % 1024,8 hPa 0,0 l/m 0,2 km/h (0 Bft) O 90 -8,1 C -6,5 C 0,0 km/h (0 Bft)
27.11.2020 05:20 -6,8 C -8,4 C 1,9 C 88 % 1024,8 hPa 0,0 l/m 0,2 km/h (0 Bft) S-SO 157 -8,4 C -6,8 C 1,9 km/h (1 Bft)
27.11.2020 05:18 -6,8 C -8,2 C 1,9 C 88 % 1024,8 hPa 0,0 l/m 0,2 km/h (0 Bft) S-SW 202 -8,4 C -6,8 C 0,0 km/h (0 Bft)
27.11.2020 05:16 -6,5 C -7,9 C 1,9 C 88 % 1024,8 hPa 0,0 l/m 0,2 km/h (0 Bft) NO 45 -8,1 C -6,5 C 0,0 km/h (0 Bft)
27.11.2020 05:14 -6,6 C -7,9 C 1,9 C 88 % 1024,8 hPa 0,0 l/m 0,2 km/h (0 Bft) O-NO 67 -8,2 C -6,6 C 0,0 km/h (0 Bft)
27.11.2020 05:12 -6,5 C -8,1 C 1,9 C 88 % 1024,8 hPa 0,0 l/m 0,2 km/h (0 Bft) O-SO 112 -8,1 C -6,5 C 2,1 km/h (1 Bft)
27.11.2020 05:10 -6,6 C -8,1 C 1,9 C 88 % 1024,9 hPa 0,0 l/m 0,0 km/h (0 Bft) N-NO 22 -8,2 C -6,6 C 0,0 km/h (0 Bft)
27.11.2020 05:08 -6,6 C -8,2 C 1,9 C 88 % 1024,9 hPa 0,0 l/m 0,2 km/h (0 Bft) NO 45 -8,2 C -6,6 C 0,0 km/h (0 Bft)
27.11.2020 05:06 -6,3 C -8,5 C 1,9 C 88 % 1024,9 hPa 0,0 l/m 0,2 km/h (0 Bft) N-NO 22 -8,0 C -6,3 C 0,0 km/h (0 Bft)
27.11.2020 05:04 -6,3 C -8,5 C 1,9 C 88 % 1024,9 hPa 0,0 l/m 0,2 km/h (0 Bft) N-NO 22 -8,0 C -6,3 C 0,0 km/h (0 Bft)
27.11.2020 05:02 -6,5 C -8,1 C 1,9 C 88 % 1024,9 hPa 0,0 l/m 0,2 km/h (0 Bft) NO 45 -8,1 C -6,5 C 0,0 km/h (0 Bft)
27.11.2020 05:00 -6,6 C -8,1 C 1,9 C 88 % 1024,9 hPa 0,0 l/m 0,6 km/h (0 Bft) O-NO 67 -8,2 C -6,6 C 0,0 km/h (0 Bft)
27.11.2020 04:58 -6,8 C -7,9 C 1,9 C 88 % 1024,9 hPa 0,0 l/m 1,0 km/h (0 Bft) O-NO 67 -8,4 C -6,8 C 1,9 km/h (1 Bft)
27.11.2020 04:56 -6,6 C -7,7 C 1,9 C 88 % 1024,9 hPa 0,0 l/m 1,1 km/h (1 Bft) N-NO 22 -8,2 C -6,6 C 0,0 km/h (0 Bft)
27.11.2020 04:54 -6,6 C -7,9 C 1,9 C 88 % 1024,9 hPa 0,0 l/m 1,3 km/h (1 Bft) N 360 -8,2 C -6,6 C 0,0 km/h (0 Bft)
27.11.2020 04:52 -6,6 C -7,7 C 1,9 C 88 % 1024,9 hPa 0,0 l/m 1,6 km/h (1 Bft) NW 315 -8,2 C -6,6 C 2,1 km/h (1 Bft)
27.11.2020 04:50 -6,6 C -7,9 C 1,9 C 88 % 1025,2 hPa 0,0 l/m 1,9 km/h (1 Bft) N 360 -8,2 C -6,6 C 3,3 km/h (1 Bft)
27.11.2020 04:48 -6,9 C -8,1 C 1,9 C 88 % 1025,2 hPa 0,0 l/m 1,9 km/h (1 Bft) N 360 -8,5 C -6,9 C 2,1 km/h (1 Bft)
27.11.2020 04:46 -7,0 C -8,2 C 1,9 C 88 % 1025,2 hPa 0,0 l/m 1,6 km/h (1 Bft) N-NO 22 -8,6 C -7,0 C 2,5 km/h (1 Bft)
27.11.2020 04:44 -7,0 C -7,7 C 1,9 C 88 % 1025,2 hPa 0,0 l/m 1,4 km/h (1 Bft) N-NO 22 -8,6 C -7,0 C 0,0 km/h (0 Bft)
27.11.2020 04:42 -6,8 C -7,4 C 1,9 C 88 % 1025,2 hPa 0,0 l/m 1,3 km/h (1 Bft) S-SW 202 -8,4 C -6,8 C 4,1 km/h (1 Bft)
27.11.2020 04:40 -6,8 C -7,4 C 1,9 C 88 % 1025,2 hPa 0,0 l/m 0,6 km/h (0 Bft) S-SO 157 -8,4 C -6,8 C 4,1 km/h (1 Bft)
27.11.2020 04:38 -6,6 C -7,9 C 1,9 C 88 % 1025,2 hPa 0,0 l/m 0,3 km/h (0 Bft) S-SO 157 -8,2 C -6,6 C 3,1 km/h (1 Bft)
27.11.2020 04:36 -6,8 C -8,4 C 1,9 C 88 % 1025,2 hPa 0,0 l/m 0,0 km/h (0 Bft) O-SO 112 -8,4 C -6,8 C 0,0 km/h (0 Bft)
27.11.2020 04:34 -6,6 C -8,2 C 1,9 C 88 % 1025,2 hPa 0,0 l/m 0,0 km/h (0 Bft) O-NO 67 -8,2 C -6,6 C 0,0 km/h (0 Bft)
27.11.2020 04:32 -6,6 C -8,1 C 1,9 C 88 % 1025,2 hPa 0,0 l/m 0,0 km/h (0 Bft) O-NO 67 -8,2 C -6,6 C 0,0 km/h (0 Bft)
27.11.2020 04:30 -6,6 C -8,1 C 1,9 C 88 % 1024,9 hPa 0,0 l/m 0,0 km/h (0 Bft) O-NO 67 -8,2 C -6,6 C 0,0 km/h (0 Bft)
27.11.2020 04:28 -6,5 C -8,4 C 1,9 C 88 % 1024,9 hPa 0,0 l/m 0,0 km/h (0 Bft) O-NO 67 -8,1 C -6,5 C 0,0 km/h (0 Bft)
27.11.2020 04:26 -6,5 C -8,5 C 1,9 C 88 % 1024,9 hPa 0,0 l/m 0,0 km/h (0 Bft) NO 45 -8,1 C -6,5 C 0,0 km/h (0 Bft)
27.11.2020 04:24 -6,5 C -8,7 C 1,9 C 88 % 1024,9 hPa 0,0 l/m 0,0 km/h (0 Bft) N-NO 22 -8,1 C -6,5 C 0,0 km/h (0 Bft)
27.11.2020 04:22 -6,6 C -8,5 C 1,9 C 88 % 1024,9 hPa 0,0 l/m 0,0 km/h (0 Bft) N 360 -8,2 C -6,6 C 0,0 km/h (0 Bft)
27.11.2020 04:20 -7,0 C -8,5 C 1,9 C 88 % 1024,9 hPa 0,0 l/m 0,0 km/h (0 Bft) N-NO 22 -8,6 C -7,0 C 0,0 km/h (0 Bft)
27.11.2020 04:18 -7,0 C -8,5 C 1,9 C 88 % 1024,9 hPa 0,0 l/m 0,0 km/h (0 Bft) O-NO 67 -8,6 C -7,0 C 0,0 km/h (0 Bft)
27.11.2020 04:16 -6,8 C -8,2 C 1,9 C 88 % 1024,9 hPa 0,0 l/m 0,0 km/h (0 Bft) O-NO 67 -8,4 C -6,8 C 0,0 km/h (0 Bft)
27.11.2020 04:14 -6,6 C -8,2 C 1,9 C 88 % 1024,9 hPa 0,0 l/m 0,0 km/h (0 Bft) N-NO 22 -8,2 C -6,6 C 0,0 km/h (0 Bft)
27.11.2020 04:12 -6,8 C -8,2 C 1,9 C 88 % 1024,9 hPa 0,0 l/m 0,0 km/h (0 Bft) NO 45 -8,4 C -6,8 C 0,0 km/h (0 Bft)
27.11.2020 04:10 -6,8 C -8,2 C 1,9 C 88 % 1025,2 hPa 0,0 l/m 0,0 km/h (0 Bft) O 90 -8,4 C -6,8 C 0,0 km/h (0 Bft)
27.11.2020 04:08 -6,8 C -7,9 C 1,9 C 88 % 1025,2 hPa 0,0 l/m 0,0 km/h (0 Bft) N 360 -8,4 C -6,8 C 0,0 km/h (0 Bft)
27.11.2020 04:06 -6,6 C -7,7 C 1,9 C 88 % 1025,2 hPa 0,0 l/m 0,0 km/h (0 Bft) N 360 -8,2 C -6,6 C 0,0 km/h (0 Bft)
27.11.2020 04:04 -6,6 C -8,1 C 1,9 C 88 % 1025,2 hPa 0,0 l/m 0,0 km/h (0 Bft) N 360 -8,2 C -6,6 C 0,0 km/h (0 Bft)
27.11.2020 04:02 -6,5 C -8,4 C 1,9 C 89 % 1025,2 hPa 0,0 l/m 0,0 km/h (0 Bft) N-NO 22 -8,0 C -6,5 C 0,0 km/h (0 Bft)
27.11.2020 04:00 -6,5 C -8,5 C 1,9 C 88 % 1025,2 hPa 0,0 l/m 0,0 km/h (0 Bft) N 360 -8,1 C -6,5 C 0,0 km/h (0 Bft)
27.11.2020 03:58 -6,5 C -8,4 C 1,9 C 88 % 1025,2 hPa 0,0 l/m 0,0 km/h (0 Bft) N-NO 22 -8,1 C -6,5 C 0,0 km/h (0 Bft)
27.11.2020 03:57 -6,5 C -8,4 C 1,9 C 88 % 1025,2 hPa 0,0 l/m 0,0 km/h (0 Bft) N-NO 22 -8,1 C -6,5 C 0,0 km/h (0 Bft)
27.11.2020 03:55 -6,6 C -8,2 C 1,9 C 88 % 1025,2 hPa 0,0 l/m 0,0 km/h (0 Bft) N-NO 22 -8,2 C -6,6 C 0,0 km/h (0 Bft)
27.11.2020 03:50 -6,5 C -8,4 C 1,9 C 89 % 1025,3 hPa 0,0 l/m 0,0 km/h (0 Bft) N-NO 22 -8,0 C -6,5 C 0,0 km/h (0 Bft)
27.11.2020 03:48 -6,5 C -8,2 C 1,9 C 89 % 1025,3 hPa 0,0 l/m 0,0 km/h (0 Bft) O-NO 67 -8,0 C -6,5 C 0,0 km/h (0 Bft)
27.11.2020 03:46 -6,5 C -8,2 C 1,9 C 88 % 1025,3 hPa 0,0 l/m 0,0 km/h (0 Bft) N 360 -8,1 C -6,5 C 0,0 km/h (0 Bft)
27.11.2020 03:44 -6,6 C -7,7 C 1,9 C 88 % 1025,3 hPa 0,0 l/m 0,0 km/h (0 Bft) N 360 -8,2 C -6,6 C 0,0 km/h (0 Bft)
27.11.2020 03:42 -6,8 C -7,6 C 2,1 C 88 % 1025,3 hPa 0,0 l/m 0,2 km/h (0 Bft) N-NO 22 -8,4 C -6,8 C 0,0 km/h (0 Bft)
27.11.2020 03:40 -6,6 C -7,6 C 2,1 C 89 % 1025,3 hPa 0,0 l/m 0,2 km/h (0 Bft) N-NO 22 -8,1 C -6,6 C 0,0 km/h (0 Bft)
27.11.2020 03:38 -6,6 C -7,7 C 2,1 C 89 % 1025,3 hPa 0,0 l/m 0,2 km/h (0 Bft) N 360 -8,1 C -6,6 C 0,0 km/h (0 Bft)
27.11.2020 03:36 -6,8 C -7,6 C 2,1 C 88 % 1025,3 hPa 0,0 l/m 0,6 km/h (0 Bft) N-NO 22 -8,4 C -6,8 C 0,0 km/h (0 Bft)
27.11.2020 03:34 -6,8 C -7,3 C 2,1 C 89 % 1025,3 hPa 0,0 l/m 1,0 km/h (0 Bft) S-SO 157 -8,3 C -6,8 C 0,0 km/h (0 Bft)
27.11.2020 03:32 -6,6 C -7,6 C 2,1 C 89 % 1025,3 hPa 0,0 l/m 1,3 km/h (1 Bft) S-SW 202 -8,1 C -6,6 C 3,5 km/h (1 Bft)
27.11.2020 03:30 -6,5 C -8,4 C 2,1 C 89 % 1025,5 hPa 0,0 l/m 1,1 km/h (1 Bft) S-SO 157 -8,0 C -6,5 C 0,0 km/h (0 Bft)
27.11.2020 03:28 -6,5 C -8,1 C 2,1 C 89 % 1025,5 hPa 0,0 l/m 1,1 km/h (1 Bft) O-NO 67 -8,0 C -6,5 C 0,0 km/h (0 Bft)
27.11.2020 03:26 -6,6 C -7,7 C 2,1 C 89 % 1025,5 hPa 0,0 l/m 0,8 km/h (0 Bft) O-NO 67 -8,1 C -6,6 C 2,3 km/h (1 Bft)
27.11.2020 03:24 -6,8 C -7,7 C 2,1 C 89 % 1025,5 hPa 0,0 l/m 0,5 km/h (0 Bft) O-NO 67 -8,3 C -6,8 C 3,1 km/h (1 Bft)
27.11.2020 03:22 -6,8 C -7,7 C 2,1 C 89 % 1025,5 hPa 0,0 l/m 0,3 km/h (0 Bft) O-NO 67 -8,3 C -6,8 C 3,3 km/h (1 Bft)
27.11.2020 03:20 -6,6 C -8,1 C 2,1 C 89 % 1025,5 hPa 0,0 l/m 0,3 km/h (0 Bft) N-NO 22 -8,1 C -6,6 C 0,0 km/h (0 Bft)
27.11.2020 03:18 -6,6 C -8,2 C 2,1 C 89 % 1025,5 hPa 0,0 l/m 0,3 km/h (0 Bft) N 360 -8,1 C -6,6 C 0,0 km/h (0 Bft)
27.11.2020 03:16 -6,6 C -8,1 C 2,1 C 89 % 1025,5 hPa 0,0 l/m 0,3 km/h (0 Bft) N 360 -8,1 C -6,6 C 0,0 km/h (0 Bft)
27.11.2020 03:14 -6,6 C -7,4 C 2,1 C 89 % 1025,5 hPa 0,0 l/m 0,3 km/h (0 Bft) N 360 -8,1 C -6,6 C 0,0 km/h (0 Bft)
27.11.2020 03:12 -6,5 C -7,9 C 2,1 C 89 % 1025,5 hPa 0,0 l/m 0,0 km/h (0 Bft) N-NO 22 -8,0 C -6,5 C 0,0 km/h (0 Bft)
27.11.2020 03:10 -6,5 C -7,9 C 2,1 C 89 % 1025,8 hPa 0,0 l/m 0,0 km/h (0 Bft) N-NO 22 -8,0 C -6,5 C 0,0 km/h (0 Bft)
27.11.2020 03:08 -6,5 C -7,9 C 2,1 C 89 % 1025,8 hPa 0,0 l/m 0,0 km/h (0 Bft) N-NO 22 -8,0 C -6,5 C 0,0 km/h (0 Bft)
27.11.2020 03:06 -6,5 C -7,9 C 2,1 C 89 % 1025,8 hPa 0,0 l/m 0,0 km/h (0 Bft) N-NO 22 -8,0 C -6,5 C 0,0 km/h (0 Bft)
27.11.2020 03:04 -6,5 C -7,9 C 2,1 C 89 % 1025,8 hPa 0,0 l/m 0,0 km/h (0 Bft) N-NO 22 -8,0 C -6,5 C 0,0 km/h (0 Bft)
27.11.2020 03:02 -6,5 C -8,1 C 2,1 C 89 % 1025,8 hPa 0,0 l/m 0,0 km/h (0 Bft) NO 45 -8,0 C -6,5 C 0,0 km/h (0 Bft)
27.11.2020 03:00 -6,5 C -8,2 C 2,1 C 89 % 1025,8 hPa 0,0 l/m 0,0 km/h (0 Bft) N-NO 22 -8,0 C -6,5 C 0,0 km/h (0 Bft)
27.11.2020 02:58 -6,5 C -8,1 C 2,1 C 89 % 1025,8 hPa 0,0 l/m 0,0 km/h (0 Bft) N-NO 22 -8,0 C -6,5 C 0,0 km/h (0 Bft)
27.11.2020 02:57 -6,5 C -8,1 C 2,1 C 89 % 1025,8 hPa 0,0 l/m 0,0 km/h (0 Bft) N-NO 22 -8,0 C -6,5 C 0,0 km/h (0 Bft)
27.11.2020 02:55 -6,5 C -7,6 C 2,1 C 89 % 1025,8 hPa 0,0 l/m 0,0 km/h (0 Bft) S-SW 202 -8,0 C -6,5 C 0,0 km/h (0 Bft)
27.11.2020 02:50 -6,3 C -8,4 C 2,1 C 89 % 1025,9 hPa 0,0 l/m 0,0 km/h (0 Bft) NO 45 -7,8 C -6,3 C 0,0 km/h (0 Bft)
27.11.2020 02:48 -6,5 C -8,1 C 2,1 C 89 % 1025,9 hPa 0,0 l/m 0,0 km/h (0 Bft) O-NO 67 -8,0 C -6,5 C 0,0 km/h (0 Bft)
27.11.2020 02:46 -6,5 C -8,1 C 2,1 C 89 % 1025,9 hPa 0,0 l/m 0,0 km/h (0 Bft) NO 45 -8,0 C -6,5 C 0,0 km/h (0 Bft)
27.11.2020 02:44 -6,5 C -8,2 C 2,1 C 89 % 1025,9 hPa 0,0 l/m 0,0 km/h (0 Bft) S 180 -8,0 C -6,5 C 0,0 km/h (0 Bft)
27.11.2020 02:42 -6,2 C -8,2 C 2,1 C 89 % 1025,9 hPa 0,0 l/m 0,0 km/h (0 Bft) N 360 -7,7 C -6,2 C 0,0 km/h (0 Bft)
27.11.2020 02:40 -6,2 C -8,2 C 2,1 C 89 % 1025,9 hPa 0,0 l/m 0,0 km/h (0 Bft) N 360 -7,7 C -6,2 C 0,0 km/h (0 Bft)
27.11.2020 02:38 -6,3 C -8,1 C 2,1 C 89 % 1025,9 hPa 0,0 l/m 0,0 km/h (0 Bft) N 360 -7,8 C -6,3 C 0,0 km/h (0 Bft)
27.11.2020 02:36 -6,2 C -8,1 C 2,1 C 89 % 1025,9 hPa 0,0 l/m 0,0 km/h (0 Bft) N-NO 22 -7,7 C -6,2 C 0,0 km/h (0 Bft)
27.11.2020 02:34 -5,9 C -8,2 C 2,1 C 89 % 1025,9 hPa 0,0 l/m 0,0 km/h (0 Bft) N-NO 22 -7,4 C -5,9 C 0,0 km/h (0 Bft)
27.11.2020 02:32 -6,2 C -8,1 C 2,1 C 89 % 1025,9 hPa 0,0 l/m 0,0 km/h (0 Bft) N 360 -7,7 C -6,2 C 0,0 km/h (0 Bft)
27.11.2020 02:30 -6,3 C -8,1 C 2,1 C 89 % 1025,9 hPa 0,0 l/m 0,0 km/h (0 Bft) N 360 -7,8 C -6,3 C 0,0 km/h (0 Bft)
27.11.2020 02:28 -6,3 C -7,9 C 2,1 C 89 % 1025,9 hPa 0,0 l/m 0,0 km/h (0 Bft) SW 225 -7,8 C -6,3 C 0,0 km/h (0 Bft)
27.11.2020 02:26 -6,3 C -7,4 C 2,1 C 89 % 1025,9 hPa 0,0 l/m 0,0 km/h (0 Bft) N-NO 22 -7,8 C -6,3 C 0,0 km/h (0 Bft)
27.11.2020 02:24 -6,3 C -7,4 C 2,0 C 89 % 1025,9 hPa 0,0 l/m 0,0 km/h (0 Bft) NO 45 -7,8 C -6,3 C 0,0 km/h (0 Bft)
27.11.2020 02:22 -6,2 C -7,7 C 2,0 C 89 % 1025,9 hPa 0,0 l/m 0,0 km/h (0 Bft) O-NO 67 -7,7 C -6,2 C 0,0 km/h (0 Bft)
27.11.2020 02:20 -6,2 C -7,9 C 2,0 C 89 % 1025,9 hPa 0,0 l/m 0,0 km/h (0 Bft) O-NO 67 -7,7 C -6,2 C 0,0 km/h (0 Bft)
27.11.2020 02:18 -6,2 C -7,9 C 2,0 C 89 % 1025,9 hPa 0,0 l/m 0,0 km/h (0 Bft) O-NO 67 -7,7 C -6,2 C 0,0 km/h (0 Bft)
27.11.2020 02:16 -6,2 C -7,7 C 2,1 C 89 % 1025,9 hPa 0,0 l/m 0,0 km/h (0 Bft) O-NO 67 -7,7 C -6,2 C 0,0 km/h (0 Bft)
27.11.2020 02:14 -6,2 C -7,6 C 2,0 C 89 % 1025,9 hPa 0,0 l/m 0,0 km/h (0 Bft) O-NO 67 -7,7 C -6,2 C 0,0 km/h (0 Bft)
27.11.2020 02:12 -6,0 C -7,6 C 2,1 C 89 % 1025,9 hPa 0,0 l/m 0,0 km/h (0 Bft) N-NO 22 -7,5 C -6,0 C 0,0 km/h (0 Bft)
27.11.2020 02:10 -6,0 C -8,2 C 2,1 C 89 % 1025,7 hPa 0,0 l/m 0,0 km/h (0 Bft) N 360 -7,5 C -6,0 C 0,0 km/h (0 Bft)
27.11.2020 02:08 -6,0 C -8,1 C 2,0 C 89 % 1025,7 hPa 0,0 l/m 0,0 km/h (0 Bft) N-NO 22 -7,5 C -6,0 C 0,0 km/h (0 Bft)
27.11.2020 02:06 -6,0 C -8,1 C 2,0 C 89 % 1025,7 hPa 0,0 l/m 0,0 km/h (0 Bft) N 360 -7,5 C -6,0 C 0,0 km/h (0 Bft)
27.11.2020 02:04 -6,0 C -7,7 C 2,0 C 89 % 1025,7 hPa 0,0 l/m 0,0 km/h (0 Bft) NO 45 -7,5 C -6,0 C 0,0 km/h (0 Bft)
27.11.2020 02:02 -6,0 C -7,9 C 2,0 C 89 % 1025,7 hPa 0,0 l/m 0,0 km/h (0 Bft) N-NO 22 -7,5 C -6,0 C 0,0 km/h (0 Bft)
27.11.2020 02:00 -6,2 C -7,9 C 2,0 C 89 % 1025,7 hPa 0,0 l/m 0,0 km/h (0 Bft) N-NO 22 -7,7 C -6,2 C 0,0 km/h (0 Bft)
27.11.2020 01:58 -6,0 C -7,7 C 2,0 C 89 % 1025,7 hPa 0,0 l/m 0,2 km/h (0 Bft) O-NO 67 -7,5 C -6,0 C 0,0 km/h (0 Bft)
27.11.2020 01:57 -6,0 C -7,7 C 2,0 C 89 % 1025,7 hPa 0,0 l/m 0,2 km/h (0 Bft) O-NO 67 -7,5 C -6,0 C 0,0 km/h (0 Bft)
27.11.2020 01:55 -5,9 C -7,9 C 2,0 C 89 % 1025,7 hPa 0,0 l/m 0,2 km/h (0 Bft) N-NO 22 -7,4 C -5,9 C 0,0 km/h (0 Bft)
27.11.2020 01:50 -6,0 C -6,9 C 2,0 C 89 % 1026,3 hPa 0,0 l/m 0,2 km/h (0 Bft) S-SW 202 -7,5 C -6,0 C 0,0 km/h (0 Bft)
27.11.2020 01:48 -6,0 C -7,1 C 2,0 C 89 % 1026,3 hPa 0,0 l/m 0,2 km/h (0 Bft) S 180 -7,5 C -6,0 C 2,3 km/h (1 Bft)
27.11.2020 01:46 -5,7 C -7,7 C 2,0 C 89 % 1026,3 hPa 0,0 l/m 0,0 km/h (0 Bft) O-SO 112 -7,2 C -5,7 C 0,0 km/h (0 Bft)
27.11.2020 01:44 -5,9 C -7,7 C 2,0 C 89 % 1026,3 hPa 0,0 l/m 0,0 km/h (0 Bft) NO 45 -7,4 C -5,9 C 0,0 km/h (0 Bft)
27.11.2020 01:42 -5,7 C -7,9 C 2,0 C 89 % 1026,3 hPa 0,0 l/m 0,0 km/h (0 Bft) N-NO 22 -7,2 C -5,7 C 0,0 km/h (0 Bft)
27.11.2020 01:40 -5,7 C -8,2 C 2,0 C 89 % 1026,3 hPa 0,0 l/m 0,0 km/h (0 Bft) N-NO 22 -7,2 C -5,7 C 0,0 km/h (0 Bft)
27.11.2020 01:38 -5,9 C -8,2 C 2,0 C 89 % 1026,3 hPa 0,0 l/m 0,0 km/h (0 Bft) N 360 -7,4 C -5,9 C 0,0 km/h (0 Bft)
27.11.2020 01:36 -6,0 C -8,4 C 2,0 C 89 % 1026,3 hPa 0,0 l/m 0,0 km/h (0 Bft) N-NO 22 -7,5 C -6,0 C 0,0 km/h (0 Bft)
27.11.2020 01:34 -6,0 C -8,1 C 2,0 C 89 % 1026,3 hPa 0,0 l/m 0,0 km/h (0 Bft) N-NO 22 -7,5 C -6,0 C 0,0 km/h (0 Bft)
27.11.2020 01:32 -6,0 C -8,1 C 2,0 C 89 % 1026,3 hPa 0,0 l/m 0,0 km/h (0 Bft) SO 135 -7,5 C -6,0 C 0,0 km/h (0 Bft)
27.11.2020 01:30 -5,9 C -7,9 C 2,0 C 89 % 1026,4 hPa 0,0 l/m 0,0 km/h (0 Bft) N-NO 22 -7,4 C -5,9 C 0,0 km/h (0 Bft)
27.11.2020 01:28 -5,9 C -7,9 C 2,0 C 89 % 1026,4 hPa 0,0 l/m 0,0 km/h (0 Bft) N-NO 22 -7,4 C -5,9 C 0,0 km/h (0 Bft)
27.11.2020 01:26 -5,9 C -7,9 C 2,0 C 89 % 1026,4 hPa 0,0 l/m 0,0 km/h (0 Bft) S 180 -7,4 C -5,9 C 0,0 km/h (0 Bft)
27.11.2020 01:24 -5,9 C -7,7 C 2,0 C 89 % 1026,4 hPa 0,0 l/m 0,0 km/h (0 Bft) W-NW 292 -7,4 C -5,9 C 0,0 km/h (0 Bft)
27.11.2020 01:22 -5,9 C -7,4 C 2,0 C 89 % 1026,4 hPa 0,0 l/m 0,0 km/h (0 Bft) N-NO 22 -7,4 C -5,9 C 0,0 km/h (0 Bft)
27.11.2020 01:20 -5,9 C -7,6 C 2,0 C 89 % 1026,4 hPa 0,0 l/m 0,0 km/h (0 Bft) NO 45 -7,4 C -5,9 C 0,0 km/h (0 Bft)
27.11.2020 01:18 -5,9 C -7,6 C 2,0 C 89 % 1026,4 hPa 0,0 l/m 0,0 km/h (0 Bft) O 90 -7,4 C -5,9 C 0,0 km/h (0 Bft)
27.11.2020 01:16 -5,9 C -7,7 C 2,0 C 89 % 1026,4 hPa 0,0 l/m 0,0 km/h (0 Bft) NO 45 -7,4 C -5,9 C 0,0 km/h (0 Bft)
27.11.2020 01:14 -5,9 C -8,1 C 2,0 C 89 % 1026,4 hPa 0,0 l/m 0,0 km/h (0 Bft) N-NO 22 -7,4 C -5,9 C 0,0 km/h (0 Bft)
27.11.2020 01:12 -5,9 C -7,9 C 2,0 C 89 % 1026,4 hPa 0,0 l/m 0,0 km/h (0 Bft) N-NO 22 -7,4 C -5,9 C 0,0 km/h (0 Bft)
27.11.2020 01:10 -5,7 C -7,6 C 2,0 C 89 % 1026,6 hPa 0,0 l/m 0,0 km/h (0 Bft) NO 45 -7,2 C -5,7 C 0,0 km/h (0 Bft)
27.11.2020 01:08 -5,7 C -7,4 C 2,0 C 89 % 1026,6 hPa 0,0 l/m 0,0 km/h (0 Bft) N-NW 337 -7,2 C -5,7 C 0,0 km/h (0 Bft)
27.11.2020 01:06 -5,6 C -8,1 C 2,0 C 89 % 1026,6 hPa 0,0 l/m 0,0 km/h (0 Bft) W 270 -7,1 C -5,6 C 0,0 km/h (0 Bft)
27.11.2020 01:04 -5,7 C -7,9 C 2,0 C 89 % 1026,6 hPa 0,0 l/m 0,0 km/h (0 Bft) N-NO 22 -7,2 C -5,7 C 0,0 km/h (0 Bft)
27.11.2020 01:02 -5,7 C -7,7 C 2,0 C 89 % 1026,6 hPa 0,0 l/m 0,0 km/h (0 Bft) NW 315 -7,2 C -5,7 C 0,0 km/h (0 Bft)
27.11.2020 01:00 -5,7 C -7,6 C 2,0 C 89 % 1026,6 hPa 0,0 l/m 0,0 km/h (0 Bft) NW 315 -7,2 C -5,7 C 0,0 km/h (0 Bft)
27.11.2020 00:58 -5,7 C -7,9 C 2,0 C 89 % 1026,6 hPa 0,0 l/m 0,0 km/h (0 Bft) N-NW 337 -7,2 C -5,7 C 0,0 km/h (0 Bft)
27.11.2020 00:57 -5,7 C -7,9 C 2,0 C 89 % 1026,6 hPa 0,0 l/m 0,0 km/h (0 Bft) N-NW 337 -7,2 C -5,7 C 0,0 km/h (0 Bft)
27.11.2020 00:55 -5,7 C -8,1 C 2,0 C 89 % 1026,6 hPa 0,0 l/m 0,0 km/h (0 Bft) N 360 -7,2 C -5,7 C 0,0 km/h (0 Bft)
27.11.2020 00:50 -5,4 C -7,9 C 2,0 C 89 % 1026,6 hPa 0,0 l/m 0,0 km/h (0 Bft) N-NO 22 -6,9 C -5,4 C 0,0 km/h (0 Bft)
27.11.2020 00:48 -5,6 C -8,1 C 2,0 C 89 % 1026,6 hPa 0,0 l/m 0,0 km/h (0 Bft) NO 45 -7,1 C -5,6 C 0,0 km/h (0 Bft)
27.11.2020 00:46 -5,6 C -8,1 C 2,0 C 89 % 1026,6 hPa 0,0 l/m 0,0 km/h (0 Bft) O-NO 67 -7,1 C -5,6 C 0,0 km/h (0 Bft)
27.11.2020 00:44 -5,7 C -7,7 C 2,0 C 89 % 1026,6 hPa 0,0 l/m 0,0 km/h (0 Bft) NO 45 -7,2 C -5,7 C 0,0 km/h (0 Bft)
27.11.2020 00:42 -5,7 C -7,6 C 2,0 C 89 % 1026,6 hPa 0,0 l/m 0,0 km/h (0 Bft) O-NO 67 -7,2 C -5,7 C 0,0 km/h (0 Bft)
27.11.2020 00:40 -5,6 C -7,9 C 2,0 C 89 % 1026,6 hPa 0,0 l/m 0,0 km/h (0 Bft) NO 45 -7,1 C -5,6 C 0,0 km/h (0 Bft)
27.11.2020 00:38 -5,6 C -8,1 C 2,0 C 89 % 1026,6 hPa 0,0 l/m 0,0 km/h (0 Bft) N 360 -7,1 C -5,6 C 0,0 km/h (0 Bft)
27.11.2020 00:36 -5,7 C -7,9 C 2,0 C 89 % 1026,6 hPa 0,0 l/m 0,0 km/h (0 Bft) NW 315 -7,2 C -5,7 C 0,0 km/h (0 Bft)
27.11.2020 00:34 -5,7 C -7,7 C 2,0 C 89 % 1026,6 hPa 0,0 l/m 0,0 km/h (0 Bft) S-SW 202 -7,2 C -5,7 C 0,0 km/h (0 Bft)
27.11.2020 00:32 -5,9 C -7,6 C 2,0 C 89 % 1026,6 hPa 0,0 l/m 0,0 km/h (0 Bft) S-SO 157 -7,4 C -5,9 C 0,0 km/h (0 Bft)
27.11.2020 00:30 -5,7 C -7,4 C 2,0 C 89 % 1026,8 hPa 0,0 l/m 0,0 km/h (0 Bft) O-NO 67 -7,2 C -5,7 C 0,0 km/h (0 Bft)
27.11.2020 00:28 -5,6 C -7,7 C 2,0 C 89 % 1026,8 hPa 0,0 l/m 0,0 km/h (0 Bft) N-NO 22 -7,1 C -5,6 C 0,0 km/h (0 Bft)
27.11.2020 00:26 -5,7 C -7,9 C 2,0 C 89 % 1026,8 hPa 0,0 l/m 0,2 km/h (0 Bft) N 360 -7,2 C -5,7 C 0,0 km/h (0 Bft)
27.11.2020 00:24 -5,7 C -7,9 C 2,0 C 89 % 1026,8 hPa 0,0 l/m 0,2 km/h (0 Bft) N 360 -7,2 C -5,7 C 0,0 km/h (0 Bft)
27.11.2020 00:22 -5,7 C -7,7 C 2,0 C 89 % 1026,8 hPa 0,0 l/m 0,2 km/h (0 Bft) N 360 -7,2 C -5,7 C 0,0 km/h (0 Bft)
27.11.2020 00:20 -5,7 C -7,6 C 2,0 C 89 % 1026,8 hPa 0,0 l/m 0,2 km/h (0 Bft) N 360 -7,2 C -5,7 C 0,0 km/h (0 Bft)
27.11.2020 00:18 -5,9 C -7,4 C 2,0 C 89 % 1026,8 hPa 0,0 l/m 0,2 km/h (0 Bft) N-NO 22 -7,4 C -5,9 C 0,0 km/h (0 Bft)
27.11.2020 00:16 -5,7 C -7,7 C 2,0 C 89 % 1026,8 hPa 0,0 l/m 0,0 km/h (0 Bft) S-SO 157 -7,2 C -5,7 C 0,0 km/h (0 Bft)
27.11.2020 00:14 -5,6 C -7,9 C 2,0 C 89 % 1026,8 hPa 0,0 l/m 0,0 km/h (0 Bft) O 90 -7,1 C -5,6 C 0,0 km/h (0 Bft)
27.11.2020 00:12 -5,4 C -7,7 C 2,0 C 89 % 1026,8 hPa 0,0 l/m 0,0 km/h (0 Bft) NO 45 -6,9 C -5,4 C 0,0 km/h (0 Bft)
27.11.2020 00:10 -5,4 C -7,7 C 2,0 C 89 % 1026,8 hPa 0,0 l/m 0,0 km/h (0 Bft) NO 45 -6,9 C -5,4 C 0,0 km/h (0 Bft)
27.11.2020 00:08 -5,4 C -7,7 C 2,0 C 89 % 1026,8 hPa 0,0 l/m 0,0 km/h (0 Bft) NO 45 -6,9 C -5,4 C 0,0 km/h (0 Bft)
27.11.2020 00:06 -5,4 C -7,7 C 2,0 C 89 % 1026,8 hPa 0,0 l/m 0,0 km/h (0 Bft) NO 45 -6,9 C -5,4 C 0,0 km/h (0 Bft)
27.11.2020 00:04 -5,4 C -7,7 C 2,0 C 89 % 1026,8 hPa 0,0 l/m 0,0 km/h (0 Bft) NO 45 -6,9 C -5,4 C 0,0 km/h (0 Bft)
27.11.2020 00:02 -5,4 C -7,6 C 2,0 C 89 % 1026,8 hPa 0,0 l/m 0,0 km/h (0 Bft) NO 45 -6,9 C -5,4 C 0,0 km/h (0 Bft)
27.11.2020 00:00 -5,4 C -7,4 C 2,0 C 89 % 1026,8 hPa 0,0 l/m 0,0 km/h (0 Bft) O-NO 67 -6,9 C -5,4 C 0,0 km/h (0 Bft)
_ Min-Zeit 07:26 04:24 15:30 14:04 15:12 - 00:00 - - 07:26 07:26 00:00
Minimum _ -7,1 C -8,7 C 1,8 C 83 % 1023,8 hPa - 0,0 km/h (0 Bft) - - -8,7 C -7,1 C 0,0 km/h (0 Bft)
_ Max-Zeit 13:08 10:18 02:10 10:04 00:00 00:00 13:14 - - 12:32 13:08 13:42
Maximum _ 1,8 C 3,8 C 2,1 C 90 % 1026,8 hPa 0,0 l/m 4,2 km/h
O (1 Bft)
- - -0,1 C 1,8 C 7,0 km/h
O-SO (2 Bft)
Durchschnitt _ -3,7 C -5,3 C 1,9 C 87 % 1025,3 hPa #0,0 l/m 0,6 km/h (0 Bft) O-NO - -5,5 C -3,7 C 0,9 km/h (0 Bft)